FW0136 Weather Reports


Display with metric or nautical units.
time (UTC)temp
F
wind
direction
speed
MPH
gust
MPH
rain 1hr
in
rain 24hr
in
rain mn
in
humidity
%
barometer
mb
20210916165306 80 94 2.0 7.0 0.00 0.00 0.00 27 1016.3
20210916165207 80 94 3.0 7.0 0.00 0.00 0.00 29 1016.3
20210916165109 80 93 3.0 7.0 0.00 0.00 0.00 30 1016.3
20210916164956 80 115 4.0 7.0 0.00 0.00 0.00 29 1016.3
20210916164858 80 115 3.0 7.0 0.00 0.00 0.00 29 1016.4
20210916164802 80 92 3.0 6.0 0.00 0.00 0.00 29 1016.5
20210916164705 80 83 3.0 6.0 0.00 0.00 0.00 30 1016.5
20210916164607 80 80 4.0 7.0 0.00 0.00 0.00 28 1016.4
20210916164508 80 88 3.0 7.0 0.00 0.00 0.00 29 1016.5
20210916164354 80 88 2.0 7.0 0.00 0.00 0.00 31 1016.5
20210916164256 80 89 3.0 7.0 0.00 0.00 0.00 29 1016.6
20210916164157 80 85 4.0 7.0 0.00 0.00 0.00 29 1016.7
20210916164132 79 85 4.0 7.0 0.00 0.00 0.00 30 1016.7
20210916163953 79 64 2.0 7.0 0.00 0.00 0.00 30 1016.6
20210916163854 79 110 4.0 7.0 0.00 0.00 0.00 30 1016.6
20210916163756 79 109 4.0 7.0 0.00 0.00 0.00 29 1016.5
20210916163702 79 111 3.0 5.0 0.00 0.00 0.00 31 1016.5
20210916163605 80 172 3.0 5.0 0.00 0.00 0.00 29 1016.5
20210916163507 80 172 2.0 6.0 0.00 0.00 0.00 30 1016.6
20210916163409 80 113 1.0 6.0 0.00 0.00 0.00 28 1016.5
20210916163311 80 145 3.0 6.0 0.00 0.00 0.00 27 1016.6
20210916163212 80 149 3.0 7.0 0.00 0.00 0.00 28 1016.6
20210916163058 80 103 2.0 7.0 0.00 0.00 0.00 30 1016.6
20210916163002 80 104 2.0 7.0 0.00 0.00 0.00 30 1016.6
20210916162905 80 83 2.0 7.0 0.00 0.00 0.00 28 1016.6
20210916162806 80 82 2.0 7.0 0.00 0.00 0.00 28 1016.6
20210916162707 80 81 3.0 7.0 0.00 0.00 0.00 29 1016.5
20210916162610 80 91 3.0 7.0 0.00 0.00 0.00 30 1016.3
20210916162455 80 99 2.0 7.0 0.00 0.00 0.00 30 1016.3
20210916162357 80 99 1.0 6.0 0.00 0.00 0.00 29 1016.4
20210916162259 80 99 3.0 6.0 0.00 0.00 0.00 28 1016.5
20210916162200 80 92 3.0 6.0 0.00 0.00 0.00 29 1016.4
20210916162103 80 101 2.0 6.0 0.00 0.00 0.00 32 1016.4
20210916162005 80 107 1.0 6.0 0.00 0.00 0.00 31 1016.6
20210916161911 80 116 1.0 6.0 0.00 0.00 0.00 31 1016.3
20210916161811 80 116 1.0 6.0 0.00 0.00 0.00 29 1016.5
20210916161653 80 116 1.0 6.0 0.00 0.00 0.00 30 1016.5
20210916161553 80 116 3.0 6.0 0.00 0.00 0.00 30 1016.6
20210916161454 80 115 3.0 6.0 0.00 0.00 0.00 31 1016.6
20210916161357 80 107 3.0 4.0 0.00 0.00 0.00 30 1016.7
20210916161303 80 117 2.0 4.0 0.00 0.00 0.00 30 1016.8
20210916161204 80 101 2.0 4.0 0.00 0.00 0.00 30 1016.9
20210916161106 80 101 1.0 4.0 0.00 0.00 0.00 30 1016.9
20210916161010 79 89 1.0 3.0 0.00 0.00 0.00 32 1016.8
20210916160911 79 89 1.0 3.0 0.00 0.00 0.00 30 1016.7
20210916160754 79 89 1.0 3.0 0.00 0.00 0.00 30 1016.6
20210916160701 79 88 1.0 4.0 0.00 0.00 0.00 30 1016.6
20210916160603 79 88 1.0 4.0 0.00 0.00 0.00 32 1016.7
20210916160506 79 113 1.0 4.0 0.00 0.00 0.00 31 1016.9
20210916160407 79 113 1.0 4.0 0.00 0.00 0.00 30 1016.8
20210916160309 79 113 2.0 4.0 0.00 0.00 0.00 31 1016.9
20210916160211 79 113 1.0 4.0 0.00 0.00 0.00 33 1016.9
20210916160056 79 94 1.0 4.0 0.00 0.00 0.00 30 1016.7
20210916155958 79 94 2.0 4.0 0.00 0.00 0.00 33 1016.8
20210916155900 79 94 2.0 4.0 0.00 0.00 0.00 31 1016.6
20210916155803 79 114 1.0 4.0 0.00 0.00 0.00 31 1016.6
20210916155704 78 125 1.0 4.0 0.00 0.00 0.00 33 1016.6
20210916155606 78 125 1.0 4.0 0.00 0.00 0.00 33 1016.7
20210916155453 78 125 1.0 4.0 0.00 0.00 0.00 30 1016.6
20210916155354 78 143 1.0 4.0 0.00 0.00 0.00 31 1016.8
20210916155256 78 84 1.0 4.0 0.00 0.00 0.00 33 1016.8
20210916155159 78 84 2.0 4.0 0.00 0.00 0.00 33 1016.8
20210916155101 78 90 1.0 4.0 0.00 0.00 0.00 34 1016.7
20210916155003 78 90 2.0 4.0 0.00 0.00 0.00 33 1016.6
20210916154904 77 90 3.0 6.0 0.00 0.00 0.00 32 1016.7
20210916154809 77 91 3.0 6.0 0.00 0.00 0.00 31 1016.8
20210916154710 77 83 1.0 7.0 0.00 0.00 0.00 32 1016.8
20210916154612 77 231 0.0 7.0 0.00 0.00 0.00 33 1016.8
20210916154453 77 232 0.0 7.0 0.00 0.00 0.00 31 1016.8
20210916154355 77 153 1.0 7.0 0.00 0.00 0.00 33 1016.8
20210916154257 77 153 2.0 7.0 0.00 0.00 0.00 32 1016.8
20210916154205 77 153 3.0 7.0 0.00 0.00 0.00 32 1016.8
20210916154122 77 153 3.0 7.0 0.00 0.00 0.00 33 1016.8
20210916154001 76 153 3.0 7.0 0.00 0.00 0.00 31 1016.8
20210916153902 76 153 3.0 7.0 0.00 0.00 0.00 35 1016.8
20210916153804 76 153 2.0 4.0 0.00 0.00 0.00 34 1016.7
20210916153706 76 153 1.0 4.0 0.00 0.00 0.00 34 1016.7
20210916153610 76 153 2.0 4.0 0.00 0.00 0.00 33 1016.7
20210916153512 76 153 2.0 4.0 0.00 0.00 0.00 33 1016.8
20210916153355 76 155 2.0 4.0 0.00 0.00 0.00 34 1016.7
20210916153257 76 68 3.0 4.0 0.00 0.00 0.00 33 1016.8
20210916153158 76 71 1.0 3.0 0.00 0.00 0.00 33 1016.8
20210916153101 75 90 0.0 1.0 0.00 0.00 0.00 35 1016.7
20210916153007 75 90 0.0 0.0 0.00 0.00 0.00 37 1016.7
20210916152908 75 90 0.0 3.0 0.00 0.00 0.00 36 1016.7
20210916152810 75 90 0.0 3.0 0.00 0.00 0.00 38 1016.7
20210916152712 75 90 0.0 4.0 0.00 0.00 0.00 37 1016.6
20210916152555 74 90 0.0 4.0 0.00 0.00 0.00 38 1016.6
20210916152456 74 90 0.0 4.0 0.00 0.00 0.00 37 1016.7
20210916152402 74 90 0.0 4.0 0.00 0.00 0.00 35 1016.6
20210916152306 74 90 0.0 4.0 0.00 0.00 0.00 35 1016.7
20210916152208 74 90 0.0 4.0 0.00 0.00 0.00 36 1016.8
20210916152110 74 90 1.0 4.0 0.00 0.00 0.00 35 1016.6
20210916151952 74 90 3.0 4.0 0.00 0.00 0.00 36 1016.6
20210916151854 73 90 3.0 6.0 0.00 0.00 0.00 36 1016.7
20210916151801 73 91 3.0 6.0 0.00 0.00 0.00 36 1016.6
20210916151703 73 106 3.0 6.0 0.00 0.00 0.00 37 1016.5
20210916151606 73 94 3.0 6.0 0.00 0.00 0.00 37 1016.7
20210916151507 73 94 2.0 6.0 0.00 0.00 0.00 37 1016.6
20210916151408 73 84 2.0 6.0 0.00 0.00 0.00 36 1016.6
20210916151311 73 69 2.0 6.0 0.00 0.00 0.00 38 1016.5
20210916151158 73 69 3.0 6.0 0.00 0.00 0.00 35 1016.5
20210916151100 73 84 3.0 6.0 0.00 0.00 0.00 36 1016.6
20210916151002 73 86 3.0 6.0 0.00 0.00 0.00 36 1016.5
20210916150904 73 86 4.0 6.0 0.00 0.00 0.00 37 1016.4
20210916150805 73 90 4.0 6.0 0.00 0.00 0.00 38 1016.5
20210916150707 72 90 2.0 6.0 0.00 0.00 0.00 38 1016.6
20210916150608 72 108 0.0 4.0 0.00 0.00 0.00 38 1016.6
20210916150453 72 190 0.0 0.0 0.00 0.00 0.00 41 1016.6
20210916150357 72 190 0.0 0.0 0.00 0.00 0.00 38 1016.5
20210916150258 71 190 0.0 0.0 0.00 0.00 0.00 42 1016.5
20210916150200 71 190 0.0 0.0 0.00 0.00 0.00 44 1016.5
20210916150102 70 261 0.0 1.0 0.00 0.00 0.00 42 1016.4
20210916150004 70 261 0.0 2.0 0.00 0.00 0.00 43 1016.4
20210916145910 70 261 0.0 2.0 0.00 0.00 0.00 43 1016.4
20210916145753 69 261 0.0 2.0 0.00 0.00 0.00 44 1016.4
20210916145654 69 261 0.0 2.0 0.00 0.00 0.00 44 1016.4
20210916145556 69 261 0.0 2.0 0.00 0.00 0.00 46 1016.5
20210916145456 68 261 0.0 2.0 0.00 0.00 0.00 44 1016.6
20210916145400 68 262 0.0 2.0 0.00 0.00 0.00 46 1016.5
20210916145306 68 261 1.0 2.0 0.00 0.00 0.00 45 1016.5
20210916145207 68 261 1.0 2.0 0.00 0.00 0.00 47 1016.5
20210916145108 68 262 1.0 2.0 0.00 0.00 0.00 47 1016.5
20210916145010 67 261 2.0 2.0 0.00 0.00 0.00 45 1016.4
20210916144912 67 262 1.0 2.0 0.00 0.00 0.00 46 1016.5
20210916144753 67 262 1.0 2.0 0.00 0.00 0.00 47 1016.4
20210916144659 67 262 1.0 3.0 0.00 0.00 0.00 47 1016.4
20210916144601 67 262 1.0 3.0 0.00 0.00 0.00 47 1016.4
20210916144504 67 262 0.0 3.0 0.00 0.00 0.00 47 1016.5
20210916144406 67 262 0.0 3.0 0.00 0.00 0.00 47 1016.5
20210916144308 67 262 0.0 4.0 0.00 0.00 0.00 47 1016.4
20210916144209 66 262 1.0 4.0 0.00 0.00 0.00 50 1016.4
20210916144130 66 262 1.0 4.0 0.00 0.00 0.00 50 1016.4
20210916144010 66 262 2.0 4.0 0.00 0.00 0.00 49 1016.4
20210916143912 66 261 2.0 4.0 0.00 0.00 0.00 49 1016.4
20210916143753 66 261 2.0 4.0 0.00 0.00 0.00 48 1016.5
20210916143656 66 261 2.0 4.0 0.00 0.00 0.00 49 1016.5
20210916143558 65 261 2.0 4.0 0.00 0.00 0.00 49 1016.5
20210916143505 65 261 2.0 4.0 0.00 0.00 0.00 50 1016.4
20210916143406 65 261 1.0 3.0 0.00 0.00 0.00 52 1016.5
20210916143308 65 261 2.0 3.0 0.00 0.00 0.00 50 1016.5
20210916143209 65 261 2.0 3.0 0.00 0.00 0.00 50 1016.5
20210916143052 64 259 2.0 3.0 0.00 0.00 0.00 50 1016.5
20210916142954 64 275 1.0 3.0 0.00 0.00 0.00 51 1016.5
20210916142901 64 276 1.0 3.0 0.00 0.00 0.00 51 1016.4
20210916142803 64 276 0.0 3.0 0.00 0.00 0.00 50 1016.4
20210916142702 64 276 1.0 3.0 0.00 0.00 0.00 51 1016.4
20210916142604 64 276 2.0 3.0 0.00 0.00 0.00 51 1016.4
20210916142506 64 276 2.0 4.0 0.00 0.00 0.00 50 1016.4
20210916142407 64 277 1.0 4.0 0.00 0.00 0.00 50 1016.3
20210916142253 64 284 2.0 4.0 0.00 0.00 0.00 52 1016.3
20210916142155 63 284 2.0 4.0 0.00 0.00 0.00 52 1016.4
20210916142058 63 265 2.0 4.0 0.00 0.00 0.00 52 1016.4
20210916142001 63 264 2.0 4.0 0.00 0.00 0.00 53 1016.4
20210916141902 63 254 2.0 4.0 0.00 0.00 0.00 52 1016.4
20210916141803 63 253 3.0 4.0 0.00 0.00 0.00 52 1016.4
20210916141705 63 252 3.0 4.0 0.00 0.00 0.00 52 1016.3
20210916141611 63 221 3.0 4.0 0.00 0.00 0.00 51 1016.3
20210916141453 63 214 2.0 6.0 0.00 0.00 0.00 51 1016.3
20210916141354 63 214 1.0 6.0 0.00 0.00 0.00 53 1016.3
20210916141256 63 214 1.0 6.0 0.00 0.00 0.00 53 1016.2
20210916141200 62 214 1.0 6.0 0.00 0.00 0.00 53 1016.2
20210916141101 62 214 1.0 6.0 0.00 0.00 0.00 52 1016.2
20210916141007 62 214 2.0 6.0 0.00 0.00 0.00 52 1016.2
20210916140910 62 214 3.0 6.0 0.00 0.00 0.00 53 1016.2
20210916140811 62 214 4.0 6.0 0.00 0.00 0.00 52 1016.2
20210916140654 62 210 4.0 6.0 0.00 0.00 0.00 53 1016.2
20210916140556 61 211 1.0 4.0 0.00 0.00 0.00 54 1016.2
20210916140458 61 238 0.0 2.0 0.00 0.00 0.00 53 1016.1
20210916140405 61 238 0.0 2.0 0.00 0.00 0.00 53 1016.1
20210916140306 61 238 0.0 2.0 0.00 0.00 0.00 54 1016.1
20210916140208 61 238 0.0 2.0 0.00 0.00 0.00 55 1016.0
20210916140112 61 238 1.0 2.0 0.00 0.00 0.00 55 1016.0
20210916135954 61 238 1.0 2.0 0.00 0.00 0.00 54 1016.1
20210916135856 61 238 0.0 1.0 0.00 0.00 0.00 54 1016.0
20210916135802 61 238 0.0 1.0 0.00 0.00 0.00 54 1016.1
20210916135704 60 238 0.0 1.0 0.00 0.00 0.00 54 1016.1
20210916135606 60 238 0.0 2.0 0.00 0.00 0.00 55 1016.0
20210916135508 60 238 0.0 2.0 0.00 0.00 0.00 56 1016.0
20210916135409 60 238 0.0 2.0 0.00 0.00 0.00 57 1016.1
20210916135252 60 238 0.0 3.0 0.00 0.00 0.00 58 1016.0
20210916135158 59 238 0.0 4.0 0.00 0.00 0.00 57 1016.0
20210916135100 59 238 0.0 4.0 0.00 0.00 0.00 58 1016.0
20210916135002 59 238 1.0 4.0 0.00 0.00 0.00 58 1016.0
20210916134903 59 238 1.0 4.0 0.00 0.00 0.00 57 1015.9
20210916134805 59 238 1.0 4.0 0.00 0.00 0.00 58 1015.9
20210916134706 58 238 2.0 4.0 0.00 0.00 0.00 57 1015.9
20210916134612 58 238 2.0 4.0 0.00 0.00 0.00 57 1015.9
20210916134454 58 238 2.0 4.0 0.00 0.00 0.00 57 1015.9
20210916134356 58 238 1.0 4.0 0.00 0.00 0.00 58 1015.9
20210916134258 58 256 0.0 1.0 0.00 0.00 0.00 59 1016.0
20210916134200 58 265 0.0 2.0 0.00 0.00 0.00 59 1015.9
20210916134134 58 265 0.0 2.0 0.00 0.00 0.00 59 1015.9
20210916133958 57 265 0.0 2.0 0.00 0.00 0.00 59 1015.9
20210916133901 57 265 0.0 2.0 0.00 0.00 0.00 59 1015.9
20210916133802 57 265 0.0 2.0 0.00 0.00 0.00 59 1015.9
20210916133703 57 265 0.0 3.0 0.00 0.00 0.00 59 1015.9
20210916133606 57 265 0.0 4.0 0.00 0.00 0.00 59 1015.8
20210916133508 57 265 0.0 4.0 0.00 0.00 0.00 59 1015.8
20210916133354 56 265 1.0 4.0 0.00 0.00 0.00 59 1015.9
20210916133256 56 265 1.0 4.0 0.00 0.00 0.00 59 1015.8
20210916133158 56 265 1.0 5.0 0.00 0.00 0.00 60 1015.9
20210916133100 56 265 2.0 5.0 0.00 0.00 0.00 60 1015.8
20210916133003 56 265 2.0 5.0 0.00 0.00 0.00 60 1015.8
20210916132904 56 229 2.0 5.0 0.00 0.00 0.00 60 1015.8
20210916132806 56 229 2.0 5.0 0.00 0.00 0.00 60 1015.7
20210916132652 56 231 3.0 5.0 0.00 0.00 0.00 60 1015.8
20210916132554 56 229 3.0 5.0 0.00 0.00 0.00 60 1015.8
20210916132455 56 229 4.0 5.0 0.00 0.00 0.00 60 1015.8
20210916132357 56 229 4.0 5.0 0.00 0.00 0.00 60 1015.8
20210916132259 56 242 3.0 5.0 0.00 0.00 0.00 60 1015.8
20210916132201 55 267 2.0 5.0 0.00 0.00 0.00 60 1015.7
20210916132106 55 273 2.0 5.0 0.00 0.00 0.00 60 1015.6
20210916132008 55 273 2.0 5.0 0.00 0.00 0.00 60 1015.6
20210916131910 55 254 2.0 5.0 0.00 0.00 0.00 60 1015.6
20210916131812 55 254 3.0 5.0 0.00 0.00 0.00 60 1015.6
20210916131653 55 254 4.0 5.0 0.00 0.00 0.00 60 1015.7
20210916131555 55 250 4.0 5.0 0.00 0.00 0.00 60 1015.7
20210916131502 55 242 4.0 5.0 0.00 0.00 0.00 61 1015.7
20210916131404 55 237 2.0 5.0 0.00 0.00 0.00 61 1015.6
20210916131305 55 234 2.0 5.0 0.00 0.00 0.00 61 1015.5
20210916131206 55 235 1.0 6.0 0.00 0.00 0.00 60 1015.4
20210916131108 55 232 2.0 6.0 0.00 0.00 0.00 60 1015.4
20210916131011 55 230 3.0 6.0 0.00 0.00 0.00 60 1015.5
20210916130856 55 228 3.0 6.0 0.00 0.00 0.00 60 1015.4
20210916130757 55 227 4.0 6.0 0.00 0.00 0.00 60 1015.5
20210916130659 55 227 4.0 6.0 0.00 0.00 0.00 59 1015.5
20210916130601 55 227 4.0 6.0 0.00 0.00 0.00 59 1015.5
20210916130503 55 225 5.0 6.0 0.00 0.00 0.00 59 1015.5
20210916130406 55 221 5.0 6.0 0.00 0.00 0.00 59 1015.4
20210916130252 55 220 4.0 5.0 0.00 0.00 0.00 59 1015.4
20210916130154 55 215 3.0 5.0 0.00 0.00 0.00 59 1015.4
20210916130056 55 206 1.0 4.0 0.00 0.00 0.00 60 1015.3
20210916125958 55 206 1.0 4.0 0.00 0.00 0.00 59 1015.2
20210916125900 55 206 2.0 6.0 0.00 0.00 0.00 59 1015.2
20210916125804 55 205 3.0 6.0 0.00 0.00 0.00 59 1015.2
20210916125709 55 205 3.0 6.0 0.00 0.00 0.00 59 1015.3
20210916125611 56 209 3.0 6.0 0.00 0.00 0.00 59 1015.2
20210916125453 56 209 3.0 6.0 0.00 0.00 0.00 58 1015.2
20210916125354 56 204 3.0 6.0 0.00 0.00 0.00 58 1015.3
20210916125256 56 202 3.0 6.0 0.00 0.00 0.00 58 1015.3
20210916125158 56 202 4.0 6.0 0.00 0.00 0.00 58 1015.3
20210916125104 56 202 5.0 6.0 0.00 0.00 0.00 58 1015.2
20210916125006 56 196 4.0 6.0 0.00 0.00 0.00 58 1015.2
20210916124908 56 217 3.0 5.0 0.00 0.00 0.00 58 1015.3
20210916124809 56 210 1.0 4.0 0.00 0.00 0.00 58 1015.2
20210916124711 56 284 2.0 4.0 0.00 0.00 0.00 58 1015.2
20210916124554 56 284 3.0 4.0 0.00 0.00 0.00 58 1015.2
20210916124502 56 274 2.0 5.0 0.00 0.00 0.00 57 1015.1
20210916124404 56 265 2.0 8.0 0.00 0.00 0.00 57 1015.2
20210916124306 56 265 2.0 8.0 0.00 0.00 0.00 57 1015.2
20210916124208 56 265 1.0 8.0 0.00 0.00 0.00 57 1015.2
20210916124121 56 265 1.0 8.0 0.00 0.00 0.00 57 1015.1
20210916124001 56 265 2.0 8.0 0.00 0.00 0.00 57 1015.1
20210916123903 57 265 3.0 8.0 0.00 0.00 0.00 57 1015.1
20210916123809 57 263 3.0 8.0 0.00 0.00 0.00 57 1015.2
20210916123653 57 255 4.0 8.0 0.00 0.00 0.00 57 1015.2
20210916123555 57 259 4.0 8.0 0.00 0.00 0.00 57 1015.1
20210916123456 57 263 4.0 5.0 0.00 0.00 0.00 57 1015.0
20210916123358 57 254 3.0 5.0 0.00 0.00 0.00 57 1015.1
20210916123301 57 260 3.0 5.0 0.00 0.00 0.00 57 1015.1
20210916123207 57 292 4.0 5.0 0.00 0.00 0.00 57 1015.0
20210916123110 57 292 4.0 5.0 0.00 0.00 0.00 57 1015.0
20210916122954 57 284 4.0 6.0 0.00 0.00 0.00 56 1015.0
20210916122857 57 275 4.0 7.0 0.00 0.00 0.00 56 1015.1
20210916122759 57 271 4.0 7.0 0.00 0.00 0.00 56 1015.0
20210916122700 57 267 4.0 7.0 0.00 0.00 0.00 56 1015.0
20210916122606 57 265 3.0 7.0 0.00 0.00 0.00 56 1015.0
20210916122507 57 247 2.0 7.0 0.00 0.00 0.00 56 1015.0
20210916122409 57 269 2.0 7.0 0.00 0.00 0.00 56 1015.0
20210916122311 58 269 3.0 7.0 0.00 0.00 0.00 56 1015.0
20210916122153 58 286 4.0 7.0 0.00 0.00 0.00 56 1015.0
20210916122056 58 277 4.0 7.0 0.00 0.00 0.00 56 1015.1
20210916122001 58 268 4.0 6.0 0.00 0.00 0.00 55 1015.0
20210916121904 58 268 4.0 6.0 0.00 0.00 0.00 55 1015.1
20210916121806 58 267 4.0 6.0 0.00 0.00 0.00 55 1015.0
20210916121707 58 261 4.0 5.0 0.00 0.00 0.00 55 1015.0
20210916121610 58 259 4.0 5.0 0.00 0.00 0.00 55 1015.0
20210916121512 58 234 4.0 5.0 0.00 0.00 0.00 55 1015.0
20210916121358 58 231 3.0 5.0 0.00 0.00 0.00 55 1014.9
20210916121302 58 247 2.0 4.0 0.00 0.00 0.00 54 1014.9
20210916121204 58 265 2.0 3.0 0.00 0.00 0.00 54 1014.8
20210916121106 58 266 1.0 3.0 0.00 0.00 0.00 54 1014.9
20210916121007 59 266 1.0 3.0 0.00 0.00 0.00 54 1014.9
20210916120909 59 266 1.0 3.0 0.00 0.00 0.00 54 1014.9
20210916120755 59 266 1.0 3.0 0.00 0.00 0.00 54 1014.9
20210916120657 59 267 1.0 3.0 0.00 0.00 0.00 54 1014.8
20210916120558 59 267 2.0 3.0 0.00 0.00 0.00 54 1014.9
20210916120459 59 269 2.0 3.0 0.00 0.00 0.00 54 1014.9
20210916120401 59 275 1.0 3.0 0.00 0.00 0.00 54 1014.9
20210916120303 59 304 0.0 4.0 0.00 0.00 0.00 54 1014.8
20210916120209 59 304 0.0 4.0 0.00 0.00 0.00 54 1014.8
20210916120111 59 304 0.0 4.0 0.00 0.00 0.00 54 1014.7
20210916120011 59 304 1.0 4.0 0.00 0.00 0.00 54 1014.8
20210916115852 59 304 2.0 4.0 0.00 0.00 0.00 54 1014.8
20210916115754 59 292 2.0 4.0 0.00 0.00 0.00 54 1014.8
20210916115657 59 292 3.0 4.0 0.00 0.00 0.00 54 1014.8
20210916115603 59 292 3.0 4.0 0.00 0.00 0.00 54 1014.8
20210916115505 59 290 2.0 4.0 0.00 0.00 0.00 54 1014.8
20210916115407 59 280 2.0 4.0 0.00 0.00 0.00 54 1014.9
20210916115310 59 275 1.0 4.0 0.00 0.00 0.00 54 1014.8
20210916115211 59 275 1.0 7.0 0.00 0.00 0.00 53 1014.8
20210916115054 59 275 0.0 7.0 0.00 0.00 0.00 54 1014.9
20210916114959 59 274 1.0 7.0 0.00 0.00 0.00 53 1014.9
20210916114901 59 274 2.0 7.0 0.00 0.00 0.00 53 1014.9
20210916114802 59 274 2.0 7.0 0.00 0.00 0.00 54 1014.9
20210916114705 59 266 3.0 7.0 0.00 0.00 0.00 54 1014.9
20210916114606 59 267 3.0 7.0 0.00 0.00 0.00 54 1014.9
20210916114508 60 280 3.0 7.0 0.00 0.00 0.00 54 1014.8
20210916114355 60 245 4.0 7.0 0.00 0.00 0.00 54 1014.9
20210916114255 60 264 4.0 7.0 0.00 0.00 0.00 54 1014.8
20210916114157 60 265 3.0 4.0 0.00 0.00 0.00 53 1014.8
20210916114133 60 252 3.0 4.0 0.00 0.00 0.00 54 1014.8
20210916114012 60 225 3.0 4.0 0.00 0.00 0.00 54 1014.8
20210916113854 60 144 2.0 3.0 0.00 0.00 0.00 54 1014.7
20210916113756 60 144 2.0 3.0 0.00 0.00 0.00 54 1014.7
20210916113702 59 144 2.0 3.0 0.00 0.00 0.00 54 1014.7
20210916113604 59 142 2.0 3.0 0.00 0.00 0.00 54 1014.7
20210916113506 59 143 2.0 3.0 0.00 0.00 0.00 54 1014.7
20210916113408 59 49 1.0 3.0 0.00 0.00 0.00 54 1014.7
20210916113311 59 49 0.0 4.0 0.00 0.00 0.00 54 1014.7
20210916113153 59 49 0.0 4.0 0.00 0.00 0.00 54 1014.7
20210916113059 59 49 1.0 5.0 0.00 0.00 0.00 54 1014.6
20210916113002 59 49 1.0 5.0 0.00 0.00 0.00 54 1014.6
20210916112905 59 49 2.0 5.0 0.00 0.00 0.00 55 1014.6
20210916112807 59 49 2.0 5.0 0.00 0.00 0.00 55 1014.5
20210916112710 59 49 2.0 6.0 0.00 0.00 0.00 55 1014.5
20210916112612 59 49 2.0 6.0 0.00 0.00 0.00 55 1014.5
20210916112458 59 49 3.0 6.0 0.00 0.00 0.00 55 1014.5
20210916112359 59 49 3.0 6.0 0.00 0.00 0.00 55 1014.5
20210916112301 59 34 3.0 6.0 0.00 0.00 0.00 56 1014.5
20210916112204 59 34 4.0 6.0 0.00 0.00 0.00 56 1014.5
20210916112105 59 35 4.0 6.0 0.00 0.00 0.00 56 1014.4
20210916112007 59 30 5.0 6.0 0.00 0.00 0.00 56 1014.5
20210916111852 59 35 5.0 6.0 0.00 0.00 0.00 56 1014.5
20210916111754 59 24 5.0 5.0 0.00 0.00 0.00 56 1014.5
20210916111656 59 31 4.0 5.0 0.00 0.00 0.00 56 1014.5
20210916111557 59 30 4.0 5.0 0.00 0.00 0.00 56 1014.6
20210916111500 59 33 3.0 5.0 0.00 0.00 0.00 56 1014.5
20210916111402 59 19 3.0 5.0 0.00 0.00 0.00 56 1014.6
20210916111308 59 19 3.0 5.0 0.00 0.00 0.00 56 1014.5
20210916111210 58 19 3.0 5.0 0.00 0.00 0.00 56 1014.6
20210916111052 58 18 2.0 5.0 0.00 0.00 0.00 56 1014.6
20210916110954 58 31 2.0 5.0 0.00 0.00 0.00 56 1014.6
20210916110856 58 32 3.0 5.0 0.00 0.00 0.00 56 1014.6
20210916110757 58 32 4.0 5.0 0.00 0.00 0.00 56 1014.6
20210916110703 58 355 4.0 5.0 0.00 0.00 0.00 56 1014.6
20210916110604 58 14 3.0 5.0 0.00 0.00 0.00 56 1014.6
20210916110504 58 13 3.0 5.0 0.00 0.00 0.00 56 1014.7
20210916110407 58 15 3.0 5.0 0.00 0.00 0.00 56 1014.6
20210916110309 58 15 3.0 5.0 0.00 0.00 0.00 56 1014.6
20210916110212 58 11 3.0 5.0 0.00 0.00 0.00 56 1014.6
20210916110057 58 5 3.0 5.0 0.00 0.00 0.00 56 1014.6
20210916110000 58 9 3.0 4.0 0.00 0.00 0.00 56 1014.7
20210916105902 58 9 2.0 4.0 0.00 0.00 0.00 56 1014.6
20210916105804 58 355 1.0 4.0 0.00 0.00 0.00 56 1014.5
20210916105707 58 355 2.0 4.0 0.00 0.00 0.00 56 1014.5
20210916105611 58 355 2.0 4.0 0.00 0.00 0.00 56 1014.6
20210916105458 58 355 2.0 4.0 0.00 0.00 0.00 56 1014.6
20210916105359 58 5 2.0 5.0 0.00 0.00 0.00 56 1014.5
20210916105301 58 9 2.0 5.0 0.00 0.00 0.00 56 1014.6
20210916105205 58 15 2.0 5.0 0.00 0.00 0.00 56 1014.5
20210916105107 58 360 3.0 5.0 0.00 0.00 0.00 56 1014.5
20210916105008 58 355 3.0 5.0 0.00 0.00 0.00 56 1014.5
20210916104856 58 355 3.0 5.0 0.00 0.00 0.00 56 1014.5
20210916104758 58 351 3.0 5.0 0.00 0.00 0.00 56 1014.5
20210916104700 58 351 3.0 5.0 0.00 0.00 0.00 56 1014.6
20210916104603 58 336 3.0 5.0 0.00 0.00 0.00 56 1014.6
20210916104505 58 11 2.0 4.0 0.00 0.00 0.00 55 1014.5
20210916104407 58 355 2.0 4.0 0.00 0.00 0.00 55 1014.5
20210916104254 58 337 2.0 3.0 0.00 0.00 0.00 55 1014.5
20210916104157 58 331 2.0 3.0 0.00 0.00 0.00 54 1014.6
20210916104131 58 326 2.0 3.0 0.00 0.00 0.00 54 1014.5
20210916104010 58 323 1.0 3.0 0.00 0.00 0.00 54 1014.5
20210916103854 58 321 2.0 3.0 0.00 0.00 0.00 54 1014.6
20210916103755 58 341 1.0 3.0 0.00 0.00 0.00 54 1014.5
20210916103658 58 346 1.0 3.0 0.00 0.00 0.00 55 1014.6
20210916103604 58 347 0.0 3.0 0.00 0.00 0.00 55 1014.5
20210916103506 58 348 1.0 3.0 0.00 0.00 0.00 54 1014.6
20210916103408 58 348 1.0 3.0 0.00 0.00 0.00 54 1014.5
20210916103310 58 348 1.0 3.0 0.00 0.00 0.00 54 1014.6
20210916103211 58 348 2.0 3.0 0.00 0.00 0.00 53 1014.5
20210916103056 58 275 1.0 3.0 0.00 0.00 0.00 53 1014.5
20210916103001 58 273 0.0 1.0 0.00 0.00 0.00 53 1014.5
20210916102903 58 273 0.0 0.0 0.00 0.00 0.00 54 1014.5
20210916102806 58 273 0.0 2.0 0.00 0.00 0.00 55 1014.5
20210916102710 58 273 0.0 2.0 0.00 0.00 0.00 55 1014.5
20210916102611 58 273 0.0 2.0 0.00 0.00 0.00 54 1014.5
20210916102454 58 273 0.0 2.0 0.00 0.00 0.00 54 1014.5
20210916102402 58 273 0.0 2.0 0.00 0.00 0.00 54 1014.4
20210916102305 58 273 0.0 2.0 0.00 0.00 0.00 54 1014.5
20210916102209 58 273 0.0 2.0 0.00 0.00 0.00 54 1014.5
20210916102053 58 273 0.0 2.0 0.00 0.00 0.00 54 1014.5
20210916101954 58 273 1.0 3.0 0.00 0.00 0.00 54 1014.5
20210916101858 58 273 1.0 3.0 0.00 0.00 0.00 54 1014.5
20210916101804 58 273 0.0 3.0 0.00 0.00 0.00 54 1014.5
20210916101706 58 273 0.0 3.0 0.00 0.00 0.00 54 1014.5
20210916101609 58 273 0.0 3.0 0.00 0.00 0.00 54 1014.4
20210916101510 57 273 0.0 3.0 0.00 0.00 0.00 54 1014.4
20210916101353 57 273 1.0 3.0 0.00 0.00 0.00 53 1014.4
20210916101255 57 273 2.0 3.0 0.00 0.00 0.00 53 1014.4
20210916101201 57 273 2.0 3.0 0.00 0.00 0.00 53 1014.5
20210916101102 57 277 1.0 3.0 0.00 0.00 0.00 53 1014.4
20210916101005 57 278 0.0 2.0 0.00 0.00 0.00 54 1014.5
20210916100907 57 278 1.0 2.0 0.00 0.00 0.00 55 1014.5
20210916100810 57 278 1.0 2.0 0.00 0.00 0.00 53 1014.5
20210916100652 57 278 1.0 3.0 0.00 0.00 0.00 52 1014.4
20210916100558 57 278 1.0 3.0 0.00 0.00 0.00 52 1014.4
20210916100501 57 278 1.0 3.0 0.00 0.00 0.00 52 1014.5
20210916100402 57 278 0.0 3.0 0.00 0.00 0.00 52 1014.5
20210916100305 57 278 0.0 3.0 0.00 0.00 0.00 52 1014.5
20210916100208 57 278 1.0 3.0 0.00 0.00 0.00 52 1014.4
20210916100110 57 278 1.0 3.0 0.00 0.00 0.00 53 1014.5
20210916095956 57 277 2.0 3.0 0.00 0.00 0.00 52 1014.4
20210916095858 57 277 2.0 3.0 0.00 0.00 0.00 52 1014.4
20210916095800 57 275 2.0 3.0 0.00 0.00 0.00 52 1014.3
20210916095701 57 275 1.0 3.0 0.00 0.00 0.00 52 1014.4
20210916095604 57 275 2.0 3.0 0.00 0.00 0.00 51 1014.4
20210916095506 57 275 2.0 3.0 0.00 0.00 0.00 51 1014.4
20210916095411 58 274 2.0 3.0 0.00 0.00 0.00 50 1014.5
20210916095253 58 272 2.0 5.0 0.00 0.00 0.00 50 1014.5
20210916095154 58 263 2.0 5.0 0.00 0.00 0.00 50 1014.4
20210916095057 58 263 2.0 5.0 0.00 0.00 0.00 50 1014.4
20210916094958 58 263 2.0 5.0 0.00 0.00 0.00 50 1014.3
20210916094901 58 263 2.0 5.0 0.00 0.00 0.00 49 1014.3
20210916094806 58 263 2.0 5.0 0.00 0.00 0.00 49 1014.4
20210916094707 58 263 2.0 5.0 0.00 0.00 0.00 49 1014.3
20210916094609 58 263 3.0 5.0 0.00 0.00 0.00 49 1014.4
20210916094512 58 258 4.0 5.0 0.00 0.00 0.00 49 1014.4
20210916094353 58 232 2.0 5.0 0.00 0.00 0.00 50 1014.3
20210916094255 58 281 1.0 4.0 0.00 0.00 0.00 50 1014.3
20210916094202 58 281 1.0 4.0 0.00 0.00 0.00 50 1014.3
20210916094118 58 281 1.0 4.0 0.00 0.00 0.00 50 1014.3
20210916093959 58 281 2.0 4.0 0.00 0.00 0.00 50 1014.3
20210916093900 58 281 2.0 4.0 0.00 0.00 0.00 49 1014.4
20210916093802 58 280 2.0 4.0 0.00 0.00 0.00 49 1014.4
20210916093706 58 280 2.0 4.0 0.00 0.00 0.00 49 1014.4
20210916093552 58 280 2.0 5.0 0.00 0.00 0.00 49 1014.4
20210916093455 58 280 3.0 5.0 0.00 0.00 0.00 49 1014.3
20210916093357 58 279 3.0 5.0 0.00 0.00 0.00 48 1014.5
20210916093259 58 270 3.0 5.0 0.00 0.00 0.00 48 1014.5
20210916093200 58 269 3.0 5.0 0.00 0.00 0.00 48 1014.4
20210916093103 58 266 3.0 5.0 0.00 0.00 0.00 47 1014.4
20210916093005 58 263 3.0 5.0 0.00 0.00 0.00 47 1014.4
20210916092911 58 245 3.0 5.0 0.00 0.00 0.00 47 1014.5
20210916092754 59 239 4.0 5.0 0.00 0.00 0.00 47 1014.5
20210916092655 59 236 3.0 5.0 0.00 0.00 0.00 47 1014.5
20210916092557 59 240 3.0 4.0 0.00 0.00 0.00 47 1014.4
20210916092459 59 237 4.0 4.0 0.00 0.00 0.00 47 1014.5
20210916092400 59 236 4.0 4.0 0.00 0.00 0.00 47 1014.5
20210916092306 59 236 4.0 4.0 0.00 0.00 0.00 46 1014.5
20210916092206 59 235 3.0 4.0 0.00 0.00 0.00 46 1014.5
20210916092108 59 239 3.0 4.0 0.00 0.00 0.00 46 1014.5
20210916092009 59 239 3.0 4.0 0.00 0.00 0.00 46 1014.4
20210916091852 59 238 3.0 4.0 0.00 0.00 0.00 46 1014.5
20210916091753 59 236 3.0 4.0 0.00 0.00 0.00 46 1014.4
20210916091659 59 236 3.0 4.0 0.00 0.00 0.00 46 1014.3
20210916091601 59 238 2.0 3.0 0.00 0.00 0.00 46 1014.3
20210916091502 59 238 2.0 3.0 0.00 0.00 0.00 46 1014.4
20210916091405 60 238 2.0 3.0 0.00 0.00 0.00 46 1014.3
20210916091308 60 238 2.0 3.0 0.00 0.00 0.00 45 1014.3
20210916091209 60 238 2.0 4.0 0.00 0.00 0.00 45 1014.4
20210916091055 60 237 2.0 4.0 0.00 0.00 0.00 45 1014.4
20210916090957 60 237 1.0 4.0 0.00 0.00 0.00 45 1014.3
20210916090859 60 237 1.0 4.0 0.00 0.00 0.00 44 1014.3
20210916090802 60 237 1.0 4.0 0.00 0.00 0.00 44 1014.3
20210916090703 60 237 2.0 4.0 0.00 0.00 0.00 44 1014.3
20210916090605 60 237 2.0 4.0 0.00 0.00 0.00 44 1014.4
20210916090511 60 237 3.0 4.0 0.00 0.00 0.00 44 1014.2
20210916090352 60 236 3.0 4.0 0.00 0.00 0.00 44 1014.2
20210916090255 60 240 2.0 4.0 0.00 0.00 0.00 44 1014.3
20210916090157 60 252 2.0 4.0 0.00 0.00 0.00 44 1014.2
20210916090103 60 252 1.0 4.0 0.00 0.00 0.00 45 1014.2
20210916090003 60 258 1.0 4.0 0.00 0.00 0.00 45 1014.2
20210916085909 60 292 1.0 4.0 0.00 0.00 0.00 45 1014.2
20210916085811 61 292 1.0 4.0 0.00 0.00 0.00 45 1014.2
20210916085652 61 292 2.0 6.0 0.00 0.00 0.00 45 1014.3
20210916085554 61 292 3.0 6.0 0.00 0.00 0.00 45 1014.2
20210916085456 61 292 3.0 6.0 0.00 0.00 0.00 45 1014.1
20210916085359 61 290 3.0 6.0 0.00 0.00 0.00 44 1014.2
20210916085305 61 290 3.0 6.0 0.00 0.00 0.00 45 1014.3
20210916085206 61 286 4.0 6.0 0.00 0.00 0.00 44 1014.2
20210916085108 61 292 4.0 6.0 0.00 0.00 0.00 45 1014.2
20210916085009 61 273 4.0 6.0 0.00 0.00 0.00 45 1014.2
20210916084911 61 275 4.0 6.0 0.00 0.00 0.00 45 1014.1
20210916084753 61 265 4.0 6.0 0.00 0.00 0.00 45 1014.1
20210916084701 61 242 3.0 4.0 0.00 0.00 0.00 45 1014.2
20210916084603 61 213 1.0 4.0 0.00 0.00 0.00 46 1014.2
20210916084506 61 151 1.0 3.0 0.00 0.00 0.00 45 1014.1
20210916084408 61 132 1.0 3.0 0.00 0.00 0.00 45 1014.2
20210916084310 61 128 1.0 3.0 0.00 0.00 0.00 45 1014.1
20210916084152 61 124 1.0 3.0 0.00 0.00 0.00 45 1014.1
20210916084126 61 121 1.0 3.0 0.00 0.00 0.00 45 1014.1
20210916084010 61 77 0.0 5.0 0.00 0.00 0.00 45 1014.1
20210916083911 61 77 0.0 5.0 0.00 0.00 0.00 45 1014.1
20210916083753 61 77 0.0 5.0 0.00 0.00 0.00 45 1014.1
20210916083656 61 77 1.0 5.0 0.00 0.00 0.00 45 1014.1
20210916083557 61 77 1.0 5.0 0.00 0.00 0.00 45 1014.2
20210916083501 60 65 1.0 5.0 0.00 0.00 0.00 45 1014.2
20210916083406 60 63 2.0 5.0 0.00 0.00 0.00 48 1014.2
20210916083309 60 63 3.0 5.0 0.00 0.00 0.00 48 1014.2
20210916083209 60 62 3.0 5.0 0.00 0.00 0.00 47 1014.2
20210916083110 60 46 3.0 4.0 0.00 0.00 0.00 47 1014.1
20210916082953 60 48 3.0 4.0 0.00 0.00 0.00 47 1014.3
20210916082856 60 45 3.0 4.0 0.00 0.00 0.00 47 1014.2
20210916082802 60 35 3.0 4.0 0.00 0.00 0.00 47 1014.3
20210916082705 60 33 3.0 4.0 0.00 0.00 0.00 47 1014.3
20210916082606 60 27 3.0 4.0 0.00 0.00 0.00 46 1014.2
20210916082509 60 26 2.0 3.0 0.00 0.00 0.00 46 1014.2
20210916082411 60 26 2.0 3.0 0.00 0.00 0.00 47 1014.1
20210916082254 60 26 1.0 3.0 0.00 0.00 0.00 46 1014.1
20210916082201 60 26 2.0 3.0 0.00 0.00 0.00 46 1014.1
20210916082104 60 26 2.0 3.0 0.00 0.00 0.00 46 1014.1
20210916082006 60 26 2.0 4.0 0.00 0.00 0.00 45 1014.0
20210916081910 60 26 1.0 4.0 0.00 0.00 0.00 45 1014.1
20210916081811 60 26 1.0 4.0 0.00 0.00 0.00 45 1014.1
20210916081654 60 26 0.0 4.0 0.00 0.00 0.00 44 1014.1
20210916081600 60 26 0.0 4.0 0.00 0.00 0.00 44 1014.1
20210916081502 60 26 0.0 4.0 0.00 0.00 0.00 44 1014.0
20210916081404 60 26 0.0 4.0 0.00 0.00 0.00 43 1014.0
20210916081308 60 26 1.0 4.0 0.00 0.00 0.00 43 1014.0
20210916081210 60 26 2.0 4.0 0.00 0.00 0.00 43 1014.0
20210916081111 60 19 1.0 3.0 0.00 0.00 0.00 43 1014.0
20210916080957 61 276 0.0 2.0 0.00 0.00 0.00 43 1014.0
20210916080858 61 276 0.0 2.0 0.00 0.00 0.00 43 1014.0
20210916080801 61 276 0.0 0.0 0.00 0.00 0.00 43 1014.0
20210916080703 61 276 0.0 0.0 0.00 0.00 0.00 43 1014.1
20210916080605 61 276 0.0 0.0 0.00 0.00 0.00 42 1014.0
20210916080508 61 276 0.0 0.0 0.00 0.00 0.00 43 1014.0
20210916080354 61 276 0.0 2.0 0.00 0.00 0.00 43 1014.1
20210916080255 61 276 0.0 2.0 0.00 0.00 0.00 43 1014.0
20210916080158 61 276 0.0 2.0 0.00 0.00 0.00 43 1014.1
20210916080100 61 276 0.0 2.0 0.00 0.00 0.00 43 1014.1
20210916080004 61 276 0.0 2.0 0.00 0.00 0.00 43 1014.0
20210916075905 61 276 0.0 2.0 0.00 0.00 0.00 44 1014.1
20210916075810 61 276 0.0 2.0 0.00 0.00 0.00 44 1014.1
20210916075652 62 276 1.0 2.0 0.00 0.00 0.00 44 1014.0
20210916075555 62 276 1.0 2.0 0.00 0.00 0.00 44 1014.1
20210916075456 62 276 0.0 2.0 0.00 0.00 0.00 44 1014.1
20210916075358 62 276 0.0 2.0 0.00 0.00 0.00 44 1014.1
20210916075300 62 276 0.0 2.0 0.00 0.00 0.00 44 1014.1
20210916075205 62 276 0.0 2.0 0.00 0.00 0.00 43 1014.2
20210916075108 62 275 0.0 2.0 0.00 0.00 0.00 43 1014.1
20210916075009 62 275 0.0 2.0 0.00 0.00 0.00 43 1014.1
20210916074911 62 275 0.0 2.0 0.00 0.00 0.00 42 1014.2
20210916074753 62 275 1.0 2.0 0.00 0.00 0.00 42 1014.1
20210916074656 62 275 1.0 2.0 0.00 0.00 0.00 43 1014.2
20210916074602 62 275 0.0 2.0 0.00 0.00 0.00 42 1014.1
20210916074505 63 275 0.0 0.0 0.00 0.00 0.00 42 1014.1
20210916074407 63 275 0.0 1.0 0.00 0.00 0.00 42 1014.1
20210916074310 63 275 0.0 1.0 0.00 0.00 0.00 42 1014.1
20210916074211 63 275 0.0 1.0 0.00 0.00 0.00 42 1014.2
20210916074127 63 275 0.0 1.0 0.00 0.00 0.00 42 1014.3
20210916074008 63 275 0.0 1.0 0.00 0.00 0.00 41 1014.2
20210916073852 63 275 0.0 1.0 0.00 0.00 0.00 41 1014.2
20210916073755 63 275 0.0 1.0 0.00 0.00 0.00 41 1014.1
20210916073657 64 275 0.0 1.0 0.00 0.00 0.00 41 1014.2
20210916073558 64 275 0.0 1.0 0.00 0.00 0.00 41 1014.3
20210916073459 64 275 0.0 1.0 0.00 0.00 0.00 43 1014.2
20210916073401 64 275 0.0 2.0 0.00 0.00 0.00 43 1014.2
20210916073307 64 275 0.0 3.0 0.00 0.00 0.00 43 1014.2
20210916073209 64 275 0.0 3.0 0.00 0.00 0.00 42 1014.2
20210916073111 64 275 0.0 4.0 0.00 0.00 0.00 41 1014.1
20210916072954 64 275 0.0 4.0 0.00 0.00 0.00 38 1014.2
20210916072856 64 275 0.0 4.0 0.00 0.00 0.00 38 1014.2
20210916072758 64 275 1.0 4.0 0.00 0.00 0.00 38 1014.2
20210916072704 64 275 1.0 4.0 0.00 0.00 0.00 38 1014.2
20210916072606 65 275 2.0 4.0 0.00 0.00 0.00 39 1014.2
20210916072507 65 275 2.0 4.0 0.00 0.00 0.00 39 1014.2
20210916072410 65 275 3.0 4.0 0.00 0.00 0.00 39 1014.2
20210916072253 65 275 2.0 4.0 0.00 0.00 0.00 39 1014.2
20210916072155 65 274 1.0 4.0 0.00 0.00 0.00 39 1014.3
20210916072101 65 265 0.0 7.0 0.00 0.00 0.00 39 1014.2
20210916072003 65 265 0.0 7.0 0.00 0.00 0.00 38 1014.2
20210916071905 65 265 0.0 7.0 0.00 0.00 0.00 38 1014.2
20210916071806 65 265 0.0 7.0 0.00 0.00 0.00 38 1014.3
20210916071710 65 265 1.0 8.0 0.00 0.00 0.00 38 1014.2
20210916071610 65 281 1.0 8.0 0.00 0.00 0.00 38 1014.3
20210916071458 65 286 2.0 8.0 0.00 0.00 0.00 38 1014.3
20210916071359 65 286 4.0 8.0 0.00 0.00 0.00 37 1014.3
20210916071300 65 286 5.0 8.0 0.00 0.00 0.00 38 1014.2
20210916071202 65 282 4.0 8.0 0.00 0.00 0.00 39 1014.3
20210916071104 65 283 4.0 8.0 0.00 0.00 0.00 39 1014.4
20210916071007 65 261 4.0 8.0 0.00 0.00 0.00 39 1014.3
20210916070854 65 244 1.0 8.0 0.00 0.00 0.00 38 1014.3
20210916070756 65 291 0.0 4.0 0.00 0.00 0.00 37 1014.2
20210916070657 65 291 0.0 5.0 0.00 0.00 0.00 37 1014.2
20210916070559 65 291 0.0 5.0 0.00 0.00 0.00 36 1014.1
20210916070501 65 291 0.0 9.0 0.00 0.00 0.00 36 1014.2
20210916070402 66 291 0.0 9.0 0.00 0.00 0.00 36 1014.2
20210916070308 66 291 0.0 9.0 0.00 0.00 0.00 37 1014.2
20210916070210 66 291 0.0 9.0 0.00 0.00 0.00 36 1014.3
20210916070052 66 291 2.0 9.0 0.00 0.00 0.00 37 1014.3
20210916065954 66 291 4.0 9.0 0.00 0.00 0.00 37 1014.2
20210916065856 66 297 5.0 9.0 0.00 0.00 0.00 36 1014.2
20210916065759 66 275 6.0 9.0 0.00 0.00 0.00 37 1014.3
20210916065704 66 283 6.0 9.0 0.00 0.00 0.00 37 1014.4
20210916065608 66 260 5.0 9.0 0.00 0.00 0.00 37 1014.3
20210916065509 66 271 4.0 9.0 0.00 0.00 0.00 38 1014.2
20210916065352 66 247 0.0 3.0 0.00 0.00 0.00 38 1014.2
20210916065254 66 157 1.0 3.0 0.00 0.00 0.00 38 1014.1
20210916065156 66 157 2.0 4.0 0.00 0.00 0.00 38 1014.1
20210916065101 66 157 2.0 4.0 0.00 0.00 0.00 39 1014.1
20210916065002 66 185 1.0 5.0 0.00 0.00 0.00 38 1014.1
20210916064904 66 211 0.0 5.0 0.00 0.00 0.00 38 1014.1
20210916064806 66 211 1.0 5.0 0.00 0.00 0.00 37 1014.1
20210916064708 66 211 1.0 5.0 0.00 0.00 0.00 37 1014.1
20210916064609 66 211 2.0 5.0 0.00 0.00 0.00 37 1014.1
20210916064455 66 211 3.0 5.0 0.00 0.00 0.00 37 1014.2
20210916064357 66 207 3.0 5.0 0.00 0.00 0.00 37 1014.2
20210916064258 66 206 3.0 5.0 0.00 0.00 0.00 37 1014.3
20210916064202 66 209 3.0 5.0 0.00 0.00 0.00 37 1014.3
20210916064115 66 208 4.0 5.0 0.00 0.00 0.00 37 1014.3
20210916063955 66 227 4.0 5.0 0.00 0.00 0.00 36 1014.3
20210916063857 66 238 3.0 5.0 0.00 0.00 0.00 37 1014.3
20210916063803 66 206 3.0 5.0 0.00 0.00 0.00 37 1014.2
20210916063705 66 214 3.0 4.0 0.00 0.00 0.00 38 1014.2
20210916063607 66 176 2.0 5.0 0.00 0.00 0.00 38 1014.2
20210916063510 66 135 1.0 4.0 0.00 0.00 0.00 38 1014.2
20210916063412 66 134 1.0 4.0 0.00 0.00 0.00 38 1014.2
20210916063253 66 120 0.0 4.0 0.00 0.00 0.00 37 1014.2
20210916063158 66 120 1.0 4.0 0.00 0.00 0.00 38 1014.1
20210916063101 66 120 2.0 4.0 0.00 0.00 0.00 38 1014.1
20210916063003 66 120 1.0 4.0 0.00 0.00 0.00 38 1014.1
20210916062905 66 119 1.0 3.0 0.00 0.00 0.00 37 1014.1
20210916062806 66 119 1.0 3.0 0.00 0.00 0.00 37 1014.1
20210916062708 66 119 1.0 3.0 0.00 0.00 0.00 37 1014.1
20210916062553 66 119 0.0 3.0 0.00 0.00 0.00 37 1014.1
20210916062457 66 119 0.0 3.0 0.00 0.00 0.00 37 1014.0
20210916062358 66 119 0.0 3.0 0.00 0.00 0.00 37 1014.1
20210916062305 66 119 0.0 3.0 0.00 0.00 0.00 37 1014.1
20210916062203 66 119 1.0 3.0 0.00 0.00 0.00 37 1014.1
20210916062107 67 119 1.0 3.0 0.00 0.00 0.00 37 1014.1
20210916062011 67 119 1.0 3.0 0.00 0.00 0.00 37 1014.1
20210916061854 67 133 1.0 3.0 0.00 0.00 0.00 37 1014.1
20210916061756 67 134 0.0 2.0 0.00 0.00 0.00 36 1014.1
20210916061657 67 205 0.0 2.0 0.00 0.00 0.00 36 1014.1
20210916061558 67 205 0.0 2.0 0.00 0.00 0.00 36 1014.1
20210916061500 67 205 0.0 2.0 0.00 0.00 0.00 36 1014.1
20210916061405 67 205 0.0 3.0 0.00 0.00 0.00 36 1014.1
20210916061307 67 205 0.0 3.0 0.00 0.00 0.00 36 1014.1
20210916061210 67 205 0.0 3.0 0.00 0.00 0.00 36 1014.1
20210916061111 67 205 0.0 3.0 0.00 0.00 0.00 35 1014.1
20210916060952 67 205 1.0 3.0 0.00 0.00 0.00 35 1014.1
20210916060854 67 205 1.0 3.0 0.00 0.00 0.00 35 1014.1
20210916060759 67 205 1.0 3.0 0.00 0.00 0.00 35 1014.0
20210916060701 67 205 2.0 3.0 0.00 0.00 0.00 35 1014.0
20210916060602 67 205 1.0 3.0 0.00 0.00 0.00 35 1014.1
20210916060506 67 204 1.0 2.0 0.00 0.00 0.00 35 1014.1
20210916060407 67 204 1.0 2.0 0.00 0.00 0.00 35 1014.0
20210916060308 68 203 0.0 2.0 0.00 0.00 0.00 36 1014.1
20210916060155 68 203 0.0 1.0 0.00 0.00 0.00 35 1014.0
20210916060055 68 203 0.0 1.0 0.00 0.00 0.00 35 1014.0
20210916055957 68 203 0.0 1.0 0.00 0.00 0.00 35 1014.1
20210916055859 68 203 0.0 0.0 0.00 0.00 0.00 35 1014.0
20210916055801 68 203 0.0 1.0 0.00 0.00 0.00 35 1014.0
20210916055703 68 203 0.0 1.0 0.00 0.00 0.00 35 1014.0
20210916055605 68 203 0.0 1.0 0.00 0.00 0.00 34 1014.1
20210916055509 68 203 0.0 1.0 0.00 0.00 0.00 34 1014.0
20210916055353 68 203 0.0 2.0 0.00 0.00 0.00 34 1014.1
20210916055255 68 203 0.0 2.0 0.00 0.00 0.00 34 1014.0
20210916055158 68 203 0.0 2.0 0.00 0.00 0.00 34 1014.0
20210916055100 68 203 0.0 2.0 0.00 0.00 0.00 34 1014.1
20210916055002 68 203 0.0 2.0 0.00 0.00 0.00 34 1014.0
20210916054909 68 203 0.0 2.0 0.00 0.00 0.00 34 1014.1
20210916054812 68 203 0.0 2.0 0.00 0.00 0.00 33 1014.1
20210916054654 68 203 1.0 3.0 0.00 0.00 0.00 33 1014.1
20210916054556 68 203 0.0 3.0 0.00 0.00 0.00 33 1014.1
20210916054457 68 203 0.0 3.0 0.00 0.00 0.00 34 1014.1
20210916054400 68 203 0.0 3.0 0.00 0.00 0.00 34 1014.2
20210916054305 68 203 0.0 3.0 0.00 0.00 0.00 34 1014.1
20210916054208 68 203 0.0 3.0 0.00 0.00 0.00 33 1014.1
20210916054122 68 203 1.0 3.0 0.00 0.00 0.00 34 1014.1
20210916054002 68 203 1.0 3.0 0.00 0.00 0.00 34 1014.1
20210916053905 68 203 2.0 3.0 0.00 0.00 0.00 33 1014.1
20210916053808 68 203 2.0 3.0 0.00 0.00 0.00 33 1014.1
20210916053655 68 202 2.0 3.0 0.00 0.00 0.00 32 1014.2
20210916053558 68 201 1.0 3.0 0.00 0.00 0.00 32 1014.1
20210916053501 68 89 0.0 2.0 0.00 0.00 0.00 32 1014.2
20210916053403 68 87 0.0 0.0 0.00 0.00 0.00 32 1014.1
20210916053306 68 70 0.0 0.0 0.00 0.00 0.00 32 1014.1
20210916053208 68 70 0.0 0.0 0.00 0.00 0.00 32 1014.0
20210916053053 68 35 0.0 0.0 0.00 0.00 0.00 32 1014.1
20210916052956 68 35 0.0 0.0 0.00 0.00 0.00 32 1014.1
20210916052858 69 35 0.0 0.0 0.00 0.00 0.00 32 1014.1
20210916052800 69 36 0.0 0.0 0.00 0.00 0.00 32 1014.0
20210916052701 69 35 0.0 0.0 0.00 0.00 0.00 32 1014.1
20210916052603 69 35 0.0 0.0 0.00 0.00 0.00 31 1014.0
20210916052511 69 35 0.0 0.0 0.00 0.00 0.00 31 1014.1
20210916052352 69 35 0.0 0.0 0.00 0.00 0.00 32 1014.1
20210916052255 69 35 0.0 0.0 0.00 0.00 0.00 31 1014.1
20210916052157 69 35 0.0 0.0 0.00 0.00 0.00 31 1014.1
20210916052059 69 35 0.0 0.0 0.00 0.00 0.00 31 1014.1
20210916052001 69 35 0.0 0.0 0.00 0.00 0.00 31 1014.2
20210916051907 69 35 0.0 0.0 0.00 0.00 0.00 31 1014.1
20210916051810 69 35 0.0 0.0 0.00 0.00 0.00 31 1014.0
20210916051654 69 35 0.0 0.0 0.00 0.00 0.00 31 1014.1
20210916051557 69 36 0.0 0.0 0.00 0.00 0.00 31 1014.2
20210916051459 69 35 0.0 0.0 0.00 0.00 0.00 31 1014.1
20210916051401 69 35 0.0 0.0 0.00 0.00 0.00 30 1014.1
20210916051307 70 35 0.0 0.0 0.00 0.00 0.00 30 1014.1
20210916051207 70 35 0.0 0.0 0.00 0.00 0.00 30 1014.2
20210916051111 70 35 0.0 0.0 0.00 0.00 0.00 30 1014.2
20210916050952 70 35 0.0 0.0 0.00 0.00 0.00 30 1014.1
20210916050852 70 35 0.0 0.0 0.00 0.00 0.00 30 1014.1
20210916050754 70 35 0.0 0.0 0.00 0.00 0.00 30 1014.2
20210916050700 70 35 0.0 0.0 0.00 0.00 0.00 30 1014.3
20210916050603 70 35 0.0 1.0 0.00 0.00 0.00 29 1014.1
20210916050505 70 35 0.0 1.0 0.00 0.00 0.00 29 1014.2
20210916050407 70 35 0.0 1.0 0.00 0.00 0.00 29 1014.1
20210916050309 70 35 0.0 1.0 0.00 0.00 0.00 29 1014.1
20210916050211 70 35 0.0 1.0 0.00 0.00 0.00 29 1014.1
20210916050058 70 36 0.0 1.0 0.00 0.00 0.00 29 1014.2
20210916045959 70 35 0.0 1.0 0.00 0.00 0.00 29 1014.1
20210916045901 70 35 0.0 1.0 0.00 0.00 0.00 29 1014.2
20210916045803 70 35 0.0 1.0 0.00 0.00 0.00 29 1014.2
20210916045705 71 35 0.0 1.0 0.00 0.00 0.00 28 1014.2
20210916045605 71 35 0.0 1.0 0.00 0.00 0.00 28 1014.2
20210916045452 71 35 0.0 2.0 0.00 0.00 0.00 28 1014.2
20210916045355 71 35 0.0 2.0 0.00 0.00 0.00 28 1014.3
20210916045257 71 35 0.0 2.0 0.00 0.00 0.00 28 1014.1
20210916045200 71 35 0.0 2.0 0.00 0.00 0.00 28 1014.2
20210916045102 71 35 0.0 2.0 0.00 0.00 0.00 27 1014.3
20210916045004 71 35 0.0 2.0 0.00 0.00 0.00 28 1014.2
20210916044905 71 35 0.0 2.0 0.00 0.00 0.00 28 1014.2
20210916044811 71 35 0.0 2.0 0.00 0.00 0.00 27 1014.1
20210916044655 71 35 1.0 2.0 0.00 0.00 0.00 28 1014.1
20210916044556 71 35 1.0 2.0 0.00 0.00 0.00 28 1014.2
20210916044459 71 35 0.0 2.0 0.00 0.00 0.00 27 1014.1
20210916044401 71 35 0.0 2.0 0.00 0.00 0.00 27 1014.3
20210916044305 71 35 0.0 2.0 0.00 0.00 0.00 27 1014.2
20210916044211 71 35 0.0 2.0 0.00 0.00 0.00 27 1014.2
20210916044124 71 35 0.0 2.0 0.00 0.00 0.00 27 1014.3
20210916044004 71 35 0.0 2.0 0.00 0.00 0.00 27 1014.2
20210916043908 71 35 0.0 2.0 0.00 0.00 0.00 27 1014.2
20210916043809 71 35 0.0 2.0 0.00 0.00 0.00 27 1014.2
20210916043711 71 35 0.0 2.0 0.00 0.00 0.00 27 1014.2
20210916043556 71 35 0.0 2.0 0.00 0.00 0.00 27 1014.2
20210916043459 71 35 0.0 2.0 0.00 0.00 0.00 27 1014.2
20210916043401 72 35 0.0 2.0 0.00 0.00 0.00 27 1014.2
20210916043305 72 38 0.0 2.0 0.00 0.00 0.00 28 1014.1
20210916043207 72 38 0.0 2.0 0.00 0.00 0.00 27 1014.3
20210916043109 72 38 0.0 2.0 0.00 0.00 0.00 27 1014.1
20210916042955 72 38 0.0 2.0 0.00 0.00 0.00 28 1014.2
20210916042857 72 38 0.0 2.0 0.00 0.00 0.00 33 1014.2
20210916042758 72 38 0.0 2.0 0.00 0.00 0.00 26 1014.1
20210916042701 72 38 0.0 2.0 0.00 0.00 0.00 26 1014.1
20210916042602 72 38 0.0 2.0 0.00 0.00 0.00 26 1014.1
20210916042505 72 38 0.0 2.0 0.00 0.00 0.00 26 1014.1
20210916042411 72 38 0.0 3.0 0.00 0.00 0.00 26 1014.1
20210916042312 72 38 0.0 3.0 0.00 0.00 0.00 27 1014.2
20210916042155 72 38 1.0 3.0 0.00 0.00 0.00 26 1014.2
20210916042056 72 38 1.0 3.0 0.00 0.00 0.00 26 1014.2
20210916041959 73 38 1.0 3.0 0.00 0.00 0.00 26 1014.2
20210916041901 73 38 1.0 3.0 0.00 0.00 0.00 25 1014.1
20210916041806 73 38 1.0 3.0 0.00 0.00 0.00 25 1014.2
20210916041708 73 38 2.0 3.0 0.00 0.00 0.00 25 1014.2
20210916041610 73 38 2.0 3.0 0.00 0.00 0.00 25 1014.1
20210916041511 73 38 1.0 3.0 0.00 0.00 0.00 25 1014.2
20210916041353 73 38 1.0 3.0 0.00 0.00 0.00 25 1014.1
20210916041256 73 38 1.0 3.0 0.00 0.00 0.00 25 1014.2
20210916041203 73 38 0.0 3.0 0.00 0.00 0.00 26 1014.2
20210916041105 73 38 0.0 3.0 0.00 0.00 0.00 29 1014.1
20210916041009 73 38 1.0 3.0 0.00 0.00 0.00 25 1014.2
20210916040852 74 38 2.0 4.0 0.00 0.00 0.00 24 1014.1
20210916040754 74 38 2.0 4.0 0.00 0.00 0.00 25 1014.1
20210916040657 74 38 2.0 4.0 0.00 0.00 0.00 25 1014.2
20210916040602 74 38 2.0 5.0 0.00 0.00 0.00 26 1014.1
20210916040504 74 38 2.0 5.0 0.00 0.00 0.00 27 1014.1
20210916040407 74 38 2.0 5.0 0.00 0.00 0.00 24 1014.0
20210916040308 74 38 2.0 5.0 0.00 0.00 0.00 24 1014.1
20210916040210 74 38 3.0 5.0 0.00 0.00 0.00 24 1014.1
20210916040052 74 38 2.0 5.0 0.00 0.00 0.00 24 1014.1
20210916035959 75 37 2.0 5.0 0.00 0.00 0.00 25 1014.0
20210916035901 75 37 3.0 5.0 0.00 0.00 0.00 24 1014.0
20210916035803 75 37 3.0 5.0 0.00 0.00 0.00 24 1014.0
20210916035704 75 27 2.0 5.0 0.00 0.00 0.00 23 1014.0
20210916035606 75 5 1.0 5.0 0.00 0.00 0.00 23 1014.0
20210916035508 75 5 3.0 5.0 0.00 0.00 0.00 23 1014.0
20210916035353 76 15 4.0 5.0 0.00 0.00 0.00 23 1014.0
20210916035255 76 346 4.0 5.0 0.00 0.00 0.00 23 1014.1
20210916035157 76 348 3.0 4.0 0.00 0.00 0.00 23 1014.0
20210916035059 76 5 3.0 4.0 0.00 0.00 0.00 24 1014.1
20210916035001 76 5 3.0 4.0 0.00 0.00 0.00 23 1014.1
20210916034903 76 5 2.0 5.0 0.00 0.00 0.00 23 1014.1
20210916034804 76 188 2.0 6.0 0.00 0.00 0.00 23 1014.1
20210916034711 76 188 1.0 6.0 0.00 0.00 0.00 22 1014.0
20210916034553 76 188 0.0 7.0 0.00 0.00 0.00 22 1014.0
20210916034456 76 188 0.0 7.0 0.00 0.00 0.00 22 1014.0
20210916034358 76 188 1.0 8.0 0.00 0.00 0.00 22 1014.0
20210916034259 76 188 2.0 8.0 0.00 0.00 0.00 22 1013.9
20210916034202 76 188 3.0 8.0 0.00 0.00 0.00 22 1013.9
20210916034119 76 200 4.0 8.0 0.00 0.00 0.00 21 1014.0
20210916033959 76 200 4.0 8.0 0.00 0.00 0.00 21 1013.9
20210916033901 76 202 5.0 8.0 0.00 0.00 0.00 21 1013.9
20210916033759 76 187 6.0 8.0 0.00 0.00 0.00 21 1013.8
20210916033701 76 205 6.0 8.0 0.00 0.00 0.00 21 1013.9
20210916033603 76 205 6.0 8.0 0.00 0.00 0.00 21 1013.9
20210916033508 76 196 6.0 9.0 0.00 0.00 0.00 22 1013.8
20210916033410 76 199 6.0 9.0 0.00 0.00 0.00 21 1013.9
20210916033312 76 207 6.0 9.0 0.00 0.00 0.00 22 1013.9
20210916033154 75 190 5.0 9.0 0.00 0.00 0.00 22 1013.9
20210916033055 75 194 6.0 9.0 0.00 0.00 0.00 22 1013.8
20210916032958 75 196 6.0 9.0 0.00 0.00 0.00 22 1013.8
20210916032904 75 208 6.0 9.0 0.00 0.00 0.00 22 1013.8
20210916032808 75 182 6.0 9.0 0.00 0.00 0.00 22 1013.8
20210916032710 74 188 7.0 9.0 0.00 0.00 0.00 22 1013.8
20210916032611 74 196 7.0 9.0 0.00 0.00 0.00 23 1013.9
20210916032511 74 205 6.0 9.0 0.00 0.00 0.00 23 1013.8
20210916032353 74 202 6.0 9.0 0.00 0.00 0.00 23 1013.8
20210916032259 74 208 6.0 9.0 0.00 0.00 0.00 23 1013.8
20210916032201 74 189 7.0 8.0 0.00 0.00 0.00 23 1013.8
20210916032104 74 197 6.0 8.0 0.00 0.00 0.00 23 1013.8
20210916032005 74 196 6.0 7.0 0.00 0.00 0.00 24 1013.8
20210916031908 74 215 6.0 7.0 0.00 0.00 0.00 24 1013.8
20210916031810 74 228 6.0 7.0 0.00 0.00 0.00 24 1013.8
20210916031656 74 229 5.0 7.0 0.00 0.00 0.00 23 1013.7
20210916031557 74 231 4.0 7.0 0.00 0.00 0.00 24 1013.7
20210916031459 74 234 4.0 7.0 0.00 0.00 0.00 23 1013.7
20210916031402 74 237 4.0 7.0 0.00 0.00 0.00 23 1013.7
20210916031303 74 243 4.0 7.0 0.00 0.00 0.00 23 1013.6
20210916031205 74 250 5.0 7.0 0.00 0.00 0.00 23 1013.7
20210916031106 74 268 5.0 7.0 0.00 0.00 0.00 23 1013.6
20210916030952 74 254 5.0 7.0 0.00 0.00 0.00 23 1013.6
20210916030855 74 279 5.0 7.0 0.00 0.00 0.00 23 1013.6
20210916030757 74 266 5.0 7.0 0.00 0.00 0.00 23 1013.6
20210916030659 74 277 5.0 7.0 0.00 0.00 0.00 23 1013.5
20210916030601 74 255 5.0 7.0 0.00 0.00 0.00 23 1013.6
20210916030502 74 263 4.0 7.0 0.00 0.00 0.00 23 1013.5
20210916030408 74 262 4.0 7.0 0.00 0.00 0.00 23 1013.5
20210916030311 74 255 5.0 7.0 0.00 0.00 0.00 23 1013.5
20210916030152 74 271 5.0 7.0 0.00 0.00 0.00 23 1013.5
20210916030054 74 265 5.0 7.0 0.00 0.00 0.00 23 1013.5
20210916025956 74 262 4.0 7.0 0.00 0.00 0.00 23 1013.4
20210916025858 74 245 4.0 6.0 0.00 0.00 0.00 23 1013.4
20210916025803 74 246 3.0 5.0 0.00 0.00 0.00 23 1013.3
20210916025705 74 275 3.0 5.0 0.00 0.00 0.00 23 1013.4
20210916025607 74 266 3.0 7.0 0.00 0.00 0.00 23 1013.4
20210916025508 74 254 3.0 8.0 0.00 0.00 0.00 23 1013.5
20210916025410 74 263 3.0 8.0 0.00 0.00 0.00 23 1013.5
20210916025311 74 246 4.0 8.0 0.00 0.00 0.00 23 1013.5
20210916025157 74 289 3.0 8.0 0.00 0.00 0.00 23 1013.4
20210916025059 74 269 3.0 8.0 0.00 0.00 0.00 23 1013.4
20210916025001 74 271 4.0 8.0 0.00 0.00 0.00 23 1013.4
20210916024903 75 267 5.0 8.0 0.00 0.00 0.00 23 1013.3
20210916024805 75 238 6.0 8.0 0.00 0.00 0.00 23 1013.4
20210916024707 75 273 6.0 8.0 0.00 0.00 0.00 23 1013.5
20210916024612 75 270 7.0 8.0 0.00 0.00 0.00 23 1013.4
20210916024511 75 275 6.0 8.0 0.00 0.00 0.00 23 1013.4
20210916024354 75 278 5.0 7.0 0.00 0.00 0.00 23 1013.4
20210916024254 75 280 5.0 7.0 0.00 0.00 0.00 23 1013.4
20210916024158 75 279 4.0 7.0 0.00 0.00 0.00 23 1013.4
20210916024133 75 279 4.0 8.0 0.00 0.00 0.00 23 1013.4
20210916023956 75 264 5.0 8.0 0.00 0.00 0.00 23 1013.4
20210916023858 75 272 5.0 8.0 0.00 0.00 0.00 22 1013.3
20210916023801 75 268 6.0 8.0 0.00 0.00 0.00 22 1013.3
20210916023702 75 274 5.0 8.0 0.00 0.00 0.00 23 1013.4
20210916023605 75 277 5.0 8.0 0.00 0.00 0.00 22 1013.3
20210916023507 75 288 6.0 8.0 0.00 0.00 0.00 22 1013.3
20210916023353 76 277 6.0 8.0 0.00 0.00 0.00 22 1013.2
20210916023255 76 289 7.0 8.0 0.00 0.00 0.00 22 1013.3
20210916023158 76 279 7.0 8.0 0.00 0.00 0.00 22 1013.2
20210916023101 76 271 7.0 8.0 0.00 0.00 0.00 22 1013.2
20210916023002 76 271 6.0 8.0 0.00 0.00 0.00 22 1013.2
20210916022904 76 281 6.0 8.0 0.00 0.00 0.00 22 1013.2
20210916022808 76 275 6.0 8.0 0.00 0.00 0.00 22 1013.1
20210916022654 76 286 6.0 8.0 0.00 0.00 0.00 22 1013.1
20210916022556 76 277 5.0 7.0 0.00 0.00 0.00 22 1013.1
20210916022457 76 271 4.0 6.0 0.00 0.00 0.00 22 1013.2
20210916022359 77 281 5.0 6.0 0.00 0.00 0.00 22 1013.1
20210916022300 77 280 5.0 7.0 0.00 0.00 0.00 22 1013.1
20210916022203 77 284 5.0 7.0 0.00 0.00 0.00 22 1013.1
20210916022109 77 275 4.0 7.0 0.00 0.00 0.00 22 1013.2
20210916022011 77 279 4.0 5.0 0.00 0.00 0.00 22 1013.0
20210916021852 77 302 3.0 4.0 0.00 0.00 0.00 22 1013.0
20210916021755 77 278 2.0 4.0 0.00 0.00 0.00 22 1013.1
20210916021658 77 246 3.0 5.0 0.00 0.00 0.00 22 1013.0
20210916021600 77 242 3.0 5.0 0.00 0.00 0.00 22 1012.9
20210916021505 77 241 3.0 5.0 0.00 0.00 0.00 22 1013.1
20210916021408 77 241 2.0 5.0 0.00 0.00 0.00 22 1013.0
20210916021310 77 268 1.0 5.0 0.00 0.00 0.00 22 1012.9
20210916021211 77 277 1.0 5.0 0.00 0.00 0.00 22 1012.9
20210916021052 78 279 3.0 5.0 0.00 0.00 0.00 21 1012.9
20210916020955 78 281 3.0 5.0 0.00 0.00 0.00 22 1012.9
20210916020901 78 282 4.0 5.0 0.00 0.00 0.00 21 1012.9
20210916020803 78 282 4.0 6.0 0.00 0.00 0.00 22 1012.9
20210916020706 78 283 4.0 4.0 0.00 0.00 0.00 22 1012.9
20210916020607 78 285 3.0 4.0 0.00 0.00 0.00 21 1012.9
20210916020510 78 285 2.0 4.0 0.00 0.00 0.00 21 1012.9
20210916020412 78 265 2.0 3.0 0.00 0.00 0.00 21 1012.9
20210916020257 78 257 3.0 3.0 0.00 0.00 0.00 21 1012.9
20210916020159 78 257 2.0 3.0 0.00 0.00 0.00 21 1012.9
20210916020101 78 257 2.0 3.0 0.00 0.00 0.00 21 1012.8
20210916020003 78 257 2.0 3.0 0.00 0.00 0.00 21 1012.9
20210916015906 78 257 1.0 3.0 0.00 0.00 0.00 22 1012.8
20210916015807 78 256 1.0 3.0 0.00 0.00 0.00 20 1012.8
20210916015653 79 256 2.0 3.0 0.00 0.00 0.00 22 1012.8
20210916015555 79 256 2.0 3.0 0.00 0.00 0.00 21 1012.8
20210916015457 79 254 2.0 3.0 0.00 0.00 0.00 21 1012.9
20210916015358 79 244 2.0 3.0 0.00 0.00 0.00 22 1012.9
20210916015301 79 240 2.0 3.0 0.00 0.00 0.00 21 1012.8
20210916015204 79 238 1.0 3.0 0.00 0.00 0.00 22 1012.8
20210916015109 79 207 1.0 2.0 0.00 0.00 0.00 21 1012.7
20210916015011 79 207 0.0 1.0 0.00 0.00 0.00 21 1012.7
20210916014854 79 207 0.0 1.0 0.00 0.00 0.00 21 1012.7
20210916014756 79 207 0.0 1.0 0.00 0.00 0.00 20 1012.7
20210916014658 80 207 0.0 0.0 0.00 0.00 0.00 21 1012.7
20210916014600 80 207 0.0 0.0 0.00 0.00 0.00 20 1012.7
20210916014508 80 207 0.0 0.0 0.00 0.00 0.00 20 1012.7
20210916014409 80 207 0.0 0.0 0.00 0.00 0.00 20 1012.6
20210916014252 80 207 0.0 0.0 0.00 0.00 0.00 20 1012.6
20210916014153 80 207 0.0 0.0 0.00 0.00 0.00 19 1012.6
20210916014130 80 207 0.0 0.0 0.00 0.00 0.00 19 1012.6
20210916014009 80 207 0.0 0.0 0.00 0.00 0.00 20 1012.6
20210916013856 80 207 0.0 0.0 0.00 0.00 0.00 20 1012.6
20210916013800 81 207 0.0 0.0 0.00 0.00 0.00 19 1012.6
20210916013701 81 207 0.0 0.0 0.00 0.00 0.00 19 1012.6
20210916013605 81 207 0.0 0.0 0.00 0.00 0.00 19 1012.6
20210916013507 81 207 0.0 0.0 0.00 0.00 0.00 19 1012.6
20210916013408 81 207 0.0 0.0 0.00 0.00 0.00 19 1012.6
20210916013255 81 207 0.0 0.0 0.00 0.00 0.00 19 1012.5
20210916013157 81 207 0.0 0.0 0.00 0.00 0.00 19 1012.6
20210916013059 82 207 0.0 0.0 0.00 0.00 0.00 18 1012.6
20210916013002 82 207 0.0 0.0 0.00 0.00 0.00 18 1012.6
20210916012903 82 207 0.0 0.0 0.00 0.00 0.00 18 1012.6
20210916012804 82 207 0.0 0.0 0.00 0.00 0.00 18 1012.6
20210916012707 82 207 0.0 0.0 0.00 0.00 0.00 18 1012.6
20210916012554 82 207 0.0 0.0 0.00 0.00 0.00 18 1012.6
20210916012455 82 207 0.0 0.0 0.00 0.00 0.00 18 1012.5
20210916012357 82 207 0.0 1.0 0.00 0.00 0.00 18 1012.5
20210916012259 83 207 0.0 1.0 0.00 0.00 0.00 18 1012.5
20210916012202 83 207 0.0 1.0 0.00 0.00 0.00 18 1012.6
20210916012103 83 207 0.0 1.0 0.00 0.00 0.00 18 1012.6
20210916012009 83 207 0.0 1.0 0.00 0.00 0.00 18 1012.6
20210916011910 83 207 0.0 1.0 0.00 0.00 0.00 17 1012.6
20210916011812 83 207 0.0 1.0 0.00 0.00 0.00 18 1012.6
20210916011655 83 207 0.0 2.0 0.00 0.00 0.00 18 1012.6
20210916011556 84 207 0.0 2.0 0.00 0.00 0.00 17 1012.6
20210916011459 84 207 0.0 3.0 0.00 0.00 0.00 17 1012.5
20210916011404 84 207 0.0 3.0 0.00 0.00 0.00 17 1012.6
20210916011307 84 207 0.0 4.0 0.00 0.00 0.00 17 1012.6
20210916011208 84 207 0.0 4.0 0.00 0.00 0.00 17 1012.6
20210916011110 84 207 0.0 4.0 0.00 0.00 0.00 17 1012.6
20210916010952 84 207 0.0 4.0 0.00 0.00 0.00 17 1012.7
20210916010855 84 207 1.0 4.0 0.00 0.00 0.00 17 1012.6
20210916010802 84 207 1.0 4.0 0.00 0.00 0.00 17 1012.6
20210916010703 85 207 2.0 4.0 0.00 0.00 0.00 16 1012.6
20210916010605 85 207 2.0 4.0 0.00 0.00 0.00 16 1012.6
20210916010507 85 207 3.0 5.0 0.00 0.00 0.00 16 1012.7
20210916010409 85 207 3.0 5.0 0.00 0.00 0.00 16 1012.6
20210916010311 85 207 3.0 7.0 0.00 0.00 0.00 17 1012.6
20210916010158 85 246 2.0 8.0 0.00 0.00 0.00 17 1012.6
20210916010100 85 246 2.0 8.0 0.00 0.00 0.00 17 1012.6
20210916010003 85 246 3.0 8.0 0.00 0.00 0.00 17 1012.7
20210916005906 85 246 3.0 8.0 0.00 0.00 0.00 16 1012.7
20210916005807 85 246 3.0 8.0 0.00 0.00 0.00 16 1012.6
20210916005710 85 244 4.0 8.0 0.00 0.00 0.00 16 1012.6
20210916005555 86 244 5.0 8.0 0.00 0.00 0.00 16 1012.7
20210916005457 86 245 5.0 8.0 0.00 0.00 0.00 15 1012.7
20210916005400 86 245 5.0 8.0 0.00 0.00 0.00 16 1012.7
20210916005305 86 246 5.0 8.0 0.00 0.00 0.00 16 1012.7
20210916005205 86 246 5.0 8.0 0.00 0.00 0.00 16 1012.7
20210916005108 86 246 5.0 8.0 0.00 0.00 0.00 16 1012.7
20210916004954 86 246 5.0 8.0 0.00 0.00 0.00 16 1012.7
20210916004855 86 246 5.0 8.0 0.00 0.00 0.00 16 1012.6
20210916004757 86 246 5.0 9.0 0.00 0.00 0.00 16 1012.6
20210916004659 86 240 5.0 9.0 0.00 0.00 0.00 15 1012.7
20210916004601 86 240 5.0 9.0 0.00 0.00 0.00 15 1012.7
20210916004503 86 240 5.0 9.0 0.00 0.00 0.00 16 1012.7
20210916004409 87 240 5.0 9.0 0.00 0.00 0.00 15 1012.7
20210916004311 87 240 5.0 10.0 0.00 0.00 0.00 15 1012.6
20210916004153 87 239 5.0 10.0 0.00 0.00 0.00 15 1012.6
20210916004128 87 239 5.0 10.0 0.00 0.00 0.00 15 1012.6
20210916004006 87 238 6.0 10.0 0.00 0.00 0.00 15 1012.6
20210916003908 87 238 6.0 10.0 0.00 0.00 0.00 15 1012.6
20210916003754 87 237 6.0 10.0 0.00 0.00 0.00 15 1012.6
20210916003656 87 237 5.0 10.0 0.00 0.00 0.00 15 1012.6
20210916003558 87 237 7.0 10.0 0.00 0.00 0.00 15 1012.7
20210916003500 87 236 8.0 10.0 0.00 0.00 0.00 15 1012.7
20210916003403 87 237 8.0 10.0 0.00 0.00 0.00 15 1012.6
20210916003305 88 238 8.0 10.0 0.00 0.00 0.00 15 1012.7
20210916003207 88 236 7.0 10.0 0.00 0.00 0.00 15 1012.7
20210916003111 88 242 6.0 9.0 0.00 0.00 0.00 15 1012.7
20210916002952 88 223 6.0 9.0 0.00 0.00 0.00 15 1012.7
20210916002854 88 227 5.0 9.0 0.00 0.00 0.00 15 1012.6
20210916002756 88 211 5.0 9.0 0.00 0.00 0.00 15 1012.6
20210916002700 88 191 5.0 9.0 0.00 0.00 0.00 15 1012.7
20210916002602 89 215 5.0 9.0 0.00 0.00 0.00 15 1012.7
20210916002508 89 223 5.0 9.0 0.00 0.00 0.00 15 1012.6
20210916002409 89 234 6.0 9.0 0.00 0.00 0.00 15 1012.7
20210916002310 89 229 7.0 9.0 0.00 0.00 0.00 15 1012.7
20210916002152 89 232 7.0 9.0 0.00 0.00 0.00 15 1012.7
20210916002054 89 240 6.0 9.0 0.00 0.00 0.00 15 1012.7
20210916001956 89 234 5.0 9.0 0.00 0.00 0.00 15 1012.8
20210916001904 90 237 3.0 12.0 0.00 0.00 0.00 15 1012.7
20210916001805 90 240 4.0 12.0 0.00 0.00 0.00 15 1012.7
20210916001707 90 244 4.0 12.0 0.00 0.00 0.00 17 1012.7
20210916001611 90 238 4.0 12.0 0.00 0.00 0.00 15 1012.8
20210916001512 90 238 5.0 12.0 0.00 0.00 0.00 14 1012.7
20210916001355 90 245 7.0 12.0 0.00 0.00 0.00 15 1012.8
20210916001301 90 240 7.0 12.0 0.00 0.00 0.00 15 1012.8
20210916001203 90 244 7.0 12.0 0.00 0.00 0.00 14 1012.7
20210916001104 91 229 5.0 12.0 0.00 0.00 0.00 14 1012.8
20210916001007 91 196 3.0 8.0 0.00 0.00 0.00 15 1012.7
20210916000909 91 243 3.0 9.0 0.00 0.00 0.00 14 1012.7
20210916000812 91 206 4.0 10.0 0.00 0.00 0.00 14 1012.8
20210916000658 91 217 4.0 10.0 0.00 0.00 0.00 14 1012.7
20210916000601 92 229 5.0 10.0 0.00 0.00 0.00 14 1012.7
20210916000502 92 211 5.0 10.0 0.00 0.00 0.00 14 1012.7
20210916000406 92 227 5.0 10.0 0.00 0.00 0.00 14 1012.7
20210916000308 92 203 6.0 10.0 0.00 0.00 0.00 14 1012.7
20210916000207 92 236 7.0 10.0 0.00 0.00 0.00 14 1012.7
20210916000054 93 211 8.0 10.0 0.00 0.00 0.00 14 1012.8
20210915235957 93 227 7.0 10.0 0.00 0.00 0.00 13 1012.7
20210915235858 93 228 6.0 10.0 0.00 0.00 0.00 14 1012.7
20210915235801 93 246 6.0 10.0 0.00 0.00 0.00 14 1012.7
20210915235703 93 232 7.0 11.0 0.00 0.00 0.00 14 1012.7
20210915235603 93 235 7.0 11.0 0.00 0.00 0.00 13 1012.7
20210915235508 93 178 6.0 11.0 0.00 0.00 0.00 14 1012.7
20210915235411 93 208 5.0 11.0 0.00 0.00 0.00 13 1012.7
20210915235253 94 273 4.0 11.0 0.00 0.00 0.00 14 1012.7
20210915235155 94 235 5.0 11.0 0.00 0.00 0.00 14 1012.7
20210915235056 94 296 7.0 11.0 0.00 0.00 0.00 13 1012.7
20210915235001 94 247 8.0 11.0 0.00 0.00 0.00 13 1012.8
20210915234907 94 212 8.0 11.0 0.00 0.00 0.00 13 1012.7
20210915234809 94 251 7.0 11.0 0.00 0.00 0.00 13 1012.7
20210915234711 94 239 5.0 14.0 0.00 0.00 0.00 14 1012.7
20210915234553 94 239 5.0 14.0 0.00 0.00 0.00 14 1012.8
20210915234454 94 289 4.0 14.0 0.00 0.00 0.00 14 1012.7
20210915234356 94 294 4.0 14.0 0.00 0.00 0.00 13 1012.6
20210915234303 94 303 4.0 14.0 0.00 0.00 0.00 13 1012.7
20210915234205 94 275 6.0 14.0 0.00 0.00 0.00 14 1012.6
20210915234121 94 294 6.0 14.0 0.00 0.00 0.00 13 1012.7
20210915234001 95 274 8.0 14.0 0.00 0.00 0.00 13 1012.7
20210915233904 95 248 7.0 13.0 0.00 0.00 0.00 14 1012.6
20210915233805 95 250 7.0 12.0 0.00 0.00 0.00 14 1012.6
20210915233707 95 242 6.0 12.0 0.00 0.00 0.00 13 1012.6
20210915233553 95 160 2.0 6.0 0.00 0.00 0.00 12 1012.7
20210915233456 95 203 1.0 6.0 0.00 0.00 0.00 15 1012.7
20210915233357 95 204 1.0 6.0 0.00 0.00 0.00 13 1012.7
20210915233259 95 211 1.0 6.0 0.00 0.00 0.00 16 1012.7
20210915233201 95 210 3.0 6.0 0.00 0.00 0.00 14 1012.7
20210915233103 95 190 3.0 6.0 0.00 0.00 0.00 16 1012.7
20210915233009 95 239 2.0 6.0 0.00 0.00 0.00 14 1012.8
20210915232911 94 232 2.0 6.0 0.00 0.00 0.00 13 1012.7
20210915232754 94 228 2.0 6.0 0.00 0.00 0.00 15 1012.7
20210915232655 94 213 1.0 6.0 0.00 0.00 0.00 15 1012.9
20210915232557 94 209 1.0 6.0 0.00 0.00 0.00 12 1012.7
20210915232458 94 248 1.0 8.0 0.00 0.00 0.00 15 1012.7
20210915232404 94 294 2.0 9.0 0.00 0.00 0.00 16 1012.8
20210915232306 94 296 4.0 9.0 0.00 0.00 0.00 14 1012.8
20210915232209 94 300 3.0 9.0 0.00 0.00 0.00 14 1012.8
20210915232110 94 269 2.0 10.0 0.00 0.00 0.00 16 1012.8
20210915232011 94 247 3.0 10.0 0.00 0.00 0.00 14 1012.8
20210915231852 94 190 3.0 10.0 0.00 0.00 0.00 14 1012.8
20210915231759 94 236 4.0 10.0 0.00 0.00 0.00 13 1012.8
20210915231701 94 186 5.0 10.0 0.00 0.00 0.00 13 1012.8
20210915231603 95 177 5.0 10.0 0.00 0.00 0.00 14 1012.8
20210915231506 95 205 7.0 10.0 0.00 0.00 0.00 13 1012.7
20210915231406 95 236 7.0 10.0 0.00 0.00 0.00 13 1012.8
20210915231308 95 227 6.0 11.0 0.00 0.00 0.00 13 1012.8
20210915231154 95 205 5.0 13.0 0.00 0.00 0.00 13 1012.8
20210915231056 95 247 6.0 13.0 0.00 0.00 0.00 14 1012.9
20210915230957 95 220 6.0 13.0 0.00 0.00 0.00 13 1012.8
20210915230858 95 226 6.0 13.0 0.00 0.00 0.00 13 1012.8
20210915230800 95 240 8.0 13.0 0.00 0.00 0.00 13 1012.8
20210915230703 95 256 9.0 13.0 0.00 0.00 0.00 13 1012.9
20210915230609 95 227 8.0 13.0 0.00 0.00 0.00 13 1012.8
20210915230511 96 192 8.0 13.0 0.00 0.00 0.00 13 1012.8
20210915230353 96 225 8.0 13.0 0.00 0.00 0.00 14 1012.9
20210915230255 96 254 9.0 12.0 0.00 0.00 0.00 14 1012.7
20210915230156 95 231 6.0 12.0 0.00 0.00 0.00 13 1012.8
20210915230058 95 252 3.0 10.0 0.00 0.00 0.00 15 1012.8
20210915230005 95 314 2.0 10.0 0.00 0.00 0.00 14 1012.8
20210915225907 95 294 2.0 10.0 0.00 0.00 0.00 14 1012.7
20210915225809 95 256 4.0 10.0 0.00 0.00 0.00 14 1012.8
20210915225711 95 286 6.0 10.0 0.00 0.00 0.00 13 1012.8
20210915225552 95 244 5.0 10.0 0.00 0.00 0.00 14 1012.8
20210915225512 95 267 5.0 9.0 0.00 0.00 0.00 14 1012.9
20210915225358 95 296 5.0 9.0 0.00 0.00 0.00 14 1012.8
20210915225258 95 207 2.0 10.0 0.00 0.00 0.00 14 1012.9
20210915225200 94 294 1.0 10.0 0.00 0.00 0.00 16 1012.8
20210915225102 94 360 1.0 10.0 0.00 0.00 0.00 18 1012.9
20210915225004 94 360 2.0 11.0 0.00 0.00 0.00 16 1012.9
20210915224906 94 360 3.0 11.0 0.00 0.00 0.00 14 1012.9
20210915224808 94 329 3.0 11.0 0.00 0.00 0.00 15 1012.9
20210915224653 94 323 4.0 12.0 0.00 0.00 0.00 14 1013.0
20210915224556 94 298 6.0 15.0 0.00 0.00 0.00 14 1012.9
20210915224459 94 261 6.0 17.0 0.00 0.00 0.00 14 1013.1
20210915224400 94 254 6.0 17.0 0.00 0.00 0.00 13 1013.0
20210915224302 94 238 6.0 17.0 0.00 0.00 0.00 13 1013.0
20210915224204 94 270 6.0 17.0 0.00 0.00 0.00 13 1013.0
20210915224123 94 276 7.0 17.0 0.00 0.00 0.00 14 1013.0
20210915224002 94 326 8.0 17.0 0.00 0.00 0.00 13 1013.1
20210915223904 94 277 10.0 17.0 0.00 0.00 0.00 14 1013.0
20210915223807 94 295 11.0 17.0 0.00 0.00 0.00 13 1013.0
20210915223711 95 242 10.0 17.0 0.00 0.00 0.00 13 1012.9
20210915223553 95 192 10.0 14.0 0.00 0.00 0.00 12 1012.8
20210915223501 95 205 10.0 14.0 0.00 0.00 0.00 12 1012.9
20210915223403 95 219 7.0 13.0 0.00 0.00 0.00 12 1012.9
20210915223305 95 205 8.0 13.0 0.00 0.00 0.00 13 1012.9
20210915223207 95 238 6.0 13.0 0.00 0.00 0.00 13 1013.0
20210915223108 95 232 7.0 13.0 0.00 0.00 0.00 15 1013.0
20210915223010 96 321 7.0 13.0 0.00 0.00 0.00 13 1013.0
20210915222855 96 246 6.0 10.0 0.00 0.00 0.00 14 1012.9
20210915222757 96 304 5.0 10.0 0.00 0.00 0.00 12 1013.0
20210915222659 96 328 4.0 10.0 0.00 0.00 0.00 16 1013.0
20210915222600 96 307 4.0 10.0 0.00 0.00 0.00 14 1013.0
20210915222504 96 254 5.0 14.0 0.00 0.00 0.00 13 1013.1
20210915222403 96 247 5.0 16.0 0.00 0.00 0.00 13 1013.0
20210915222308 96 209 6.0 16.0 0.00 0.00 0.00 13 1013.1
20210915222210 96 246 7.0 16.0 0.00 0.00 0.00 12 1013.1
20210915222112 96 277 6.0 16.0 0.00 0.00 0.00 12 1013.1
20210915222009 96 307 5.0 16.0 0.00 0.00 0.00 13 1013.1
20210915221911 96 222 4.0 16.0 0.00 0.00 0.00 15 1013.1
20210915221753 96 223 7.0 16.0 0.00 0.00 0.00 14 1013.1
20210915221701 96 227 8.0 16.0 0.00 0.00 0.00 13 1013.2
20210915221601 96 240 6.0 16.0 0.00 0.00 0.00 14 1013.1
20210915221505 96 302 4.0 7.0 0.00 0.00 0.00 17 1013.2
20210915221407 95 322 4.0 8.0 0.00 0.00 0.00 14 1013.1
20210915221310 95 329 4.0 8.0 0.00 0.00 0.00 15 1013.2
20210915221152 95 319 3.0 9.0 0.00 0.00 0.00 16 1013.1
20210915221059 95 40 2.0 9.0 0.00 0.00 0.00 15 1013.1
20210915221001 95 322 3.0 9.0 0.00 0.00 0.00 16 1013.2
20210915220904 95 292 4.0 9.0 0.00 0.00 0.00 14 1013.3
20210915220806 95 276 3.0 9.0 0.00 0.00 0.00 15 1013.2
20210915220708 94 295 3.0 13.0 0.00 0.00 0.00 17 1013.2
20210915220610 94 308 4.0 13.0 0.00 0.00 0.00 15 1013.3
20210915220457 94 261 4.0 13.0 0.00 0.00 0.00 15 1013.3
20210915220358 94 219 4.0 13.0 0.00 0.00 0.00 13 1013.3
20210915220259 94 36 4.0 13.0 0.00 0.00 0.00 14 1013.3
20210915220202 94 360 3.0 13.0 0.00 0.00 0.00 16 1013.3
20210915220105 94 30 4.0 15.0 0.00 0.00 0.00 14 1013.3
20210915220006 94 303 7.0 15.0 0.00 0.00 0.00 14 1013.5
20210915215852 94 269 5.0 15.0 0.00 0.00 0.00 13 1013.5
20210915215754 94 281 1.0 15.0 0.00 0.00 0.00 14 1013.4
20210915215655 94 176 0.0 15.0 0.00 0.00 0.00 15 1013.3
20210915215556 94 180 1.0 15.0 0.00 0.00 0.00 14 1013.4
20210915215459 94 180 5.0 15.0 0.00 0.00 0.00 14 1013.4
20210915215400 94 180 9.0 15.0 0.00 0.00 0.00 13 1013.5
20210915215304 94 202 8.0 15.0 0.00 0.00 0.00 13 1013.3
20210915215207 94 240 7.0 13.0 0.00 0.00 0.00 14 1013.3
20210915215109 93 225 6.0 13.0 0.00 0.00 0.00 14 1013.4
20210915215011 93 241 5.0 13.0 0.00 0.00 0.00 13 1013.5
20210915214853 93 205 10.0 13.0 0.00 0.00 0.00 14 1013.5
20210915214755 93 244 11.0 14.0 0.00 0.00 0.00 13 1013.5
20210915214657 93 216 9.0 15.0 0.00 0.00 0.00 14 1013.5
20210915214603 93 240 8.0 15.0 0.00 0.00 0.00 13 1013.5
20210915214506 93 223 7.0 15.0 0.00 0.00 0.00 13 1013.5
20210915214408 93 242 5.0 12.0 0.00 0.00 0.00 16 1013.5
20210915214311 93 182 6.0 12.0 0.00 0.00 0.00 14 1013.5
20210915214153 93 188 6.0 14.0 0.00 0.00 0.00 15 1013.6
20210915214129 93 220 6.0 14.0 0.00 0.00 0.00 15 1013.5
20210915213953 93 219 9.0 14.0 0.00 0.00 0.00 14 1013.5
20210915213855 93 230 8.0 14.0 0.00 0.00 0.00 13 1013.7
20210915213757 93 234 8.0 15.0 0.00 0.00 0.00 14 1013.6
20210915213659 93 228 8.0 17.0 0.00 0.00 0.00 13 1013.6
20210915213601 92 252 7.0 17.0 0.00 0.00 0.00 15 1013.7
20210915213503 92 240 8.0 17.0 0.00 0.00 0.00 14 1013.6
20210915213409 92 267 9.0 17.0 0.00 0.00 0.00 14 1013.8
20210915213311 92 283 10.0 17.0 0.00 0.00 0.00 14 1013.6
20210915213153 92 215 9.0 17.0 0.00 0.00 0.00 14 1013.7
20210915213054 92 236 10.0 17.0 0.00 0.00 0.00 15 1013.6
20210915212956 92 228 11.0 17.0 0.00 0.00 0.00 14 1013.7
20210915212859 92 223 8.0 16.0 0.00 0.00 0.00 14 1013.8
20210915212805 92 198 8.0 16.0 0.00 0.00 0.00 14 1013.7
20210915212707 92 229 8.0 16.0 0.00 0.00 0.00 13 1013.8
20210915212608 92 235 6.0 16.0 0.00 0.00 0.00 14 1013.8
20210915212510 92 227 5.0 16.0 0.00 0.00 0.00 14 1013.8
20210915212352 91 200 6.0 16.0 0.00 0.00 0.00 14 1013.8
20210915212254 91 232 6.0 16.0 0.00 0.00 0.00 15 1013.8
20210915212200 91 227 8.0 16.0 0.00 0.00 0.00 14 1013.8
20210915212102 91 220 9.0 16.0 0.00 0.00 0.00 14 1013.8
20210915212005 91 249 8.0 12.0 0.00 0.00 0.00 15 1013.8
20210915211907 91 253 8.0 12.0 0.00 0.00 0.00 14 1013.9
20210915211808 91 239 8.0 14.0 0.00 0.00 0.00 14 1013.9
20210915211711 91 261 9.0 14.0 0.00 0.00 0.00 14 1013.9
20210915211558 91 219 8.0 14.0 0.00 0.00 0.00 14 1013.8
20210915211500 92 189 8.0 14.0 0.00 0.00 0.00 13 1013.9
20210915211401 92 167 10.0 14.0 0.00 0.00 0.00 13 1013.8
20210915211303 92 189 10.0 14.0 0.00 0.00 0.00 14 1014.0
20210915211206 92 204 11.0 14.0 0.00 0.00 0.00 13 1013.9
20210915211108 92 186 10.0 16.0 0.00 0.00 0.00 13 1014.0
20210915210953 92 211 9.0 16.0 0.00 0.00 0.00 13 1014.0
20210915210855 92 201 9.0 16.0 0.00 0.00 0.00 13 1014.0
20210915210756 92 217 9.0 16.0 0.00 0.00 0.00 14 1014.0
20210915210658 92 229 8.0 16.0 0.00 0.00 0.00 15 1014.1
20210915210601 92 252 5.0 16.0 0.00 0.00 0.00 14 1014.0
20210915210504 92 277 5.0 16.0 0.00 0.00 0.00 14 1014.1
20210915210405 92 135 8.0 16.0 0.00 0.00 0.00 14 1014.0
20210915210311 92 198 11.0 16.0 0.00 0.00 0.00 13 1014.1
20210915210153 92 189 11.0 17.0 0.00 0.00 0.00 13 1014.0
20210915210055 92 240 8.0 16.0 0.00 0.00 0.00 14 1014.0
20210915205959 92 218 4.0 11.0 0.00 0.00 0.00 15 1014.1
20210915205900 92 208 3.0 11.0 0.00 0.00 0.00 17 1014.0
20210915205802 92 257 3.0 11.0 0.00 0.00 0.00 16 1014.1
20210915205707 92 240 3.0 12.0 0.00 0.00 0.00 14 1014.1
20210915205609 91 227 2.0 12.0 0.00 0.00 0.00 16 1014.1
20210915205452 91 294 0.0 12.0 0.00 0.00 0.00 14 1014.1
20210915205353 91 316 1.0 12.0 0.00 0.00 0.00 19 1014.2
20210915205255 91 316 5.0 12.0 0.00 0.00 0.00 16 1014.2
20210915205158 91 315 7.0 12.0 0.00 0.00 0.00 16 1014.3
20210915205103 90 321 7.0 12.0 0.00 0.00 0.00 15 1014.2
20210915205005 90 277 9.0 12.0 0.00 0.00 0.00 15 1014.3
20210915204907 90 299 9.0 12.0 0.00 0.00 0.00 16 1014.3
20210915204809 90 275 8.0 11.0 0.00 0.00 0.00 15 1014.5
20210915204711 90 249 6.0 12.0 0.00 0.00 0.00 16 1014.4
20210915204555 90 225 5.0 9.0 0.00 0.00 0.00 15 1014.5
20210915204500 90 188 4.0 9.0 0.00 0.00 0.00 17 1014.4
20210915204402 90 207 3.0 11.0 0.00 0.00 0.00 22 1014.5
20210915204305 90 139 3.0 11.0 0.00 0.00 0.00 19 1014.4
20210915204206 90 159 5.0 11.0 0.00 0.00 0.00 18 1014.5
20210915204120 90 161 6.0 11.0 0.00 0.00 0.00 17 1014.5
20210915204000 90 185 6.0 11.0 0.00 0.00 0.00 17 1014.5
20210915203906 90 162 7.0 11.0 0.00 0.00 0.00 17 1014.5
20210915203809 90 130 6.0 11.0 0.00 0.00 0.00 18 1014.5
20210915203710 90 200 7.0 11.0 0.00 0.00 0.00 18 1014.5
20210915203552 90 179 7.0 12.0 0.00 0.00 0.00 19 1014.5
20210915203454 90 198 7.0 12.0 0.00 0.00 0.00 19 1014.5
20210915203355 90 192 8.0 12.0 0.00 0.00 0.00 20 1014.5
20210915203301 89 161 6.0 11.0 0.00 0.00 0.00 20 1014.5
20210915203203 89 197 6.0 13.0 0.00 0.00 0.00 20 1014.5
20210915203105 89 100 6.0 13.0 0.00 0.00 0.00 18 1014.6
20210915203006 89 150 7.0 13.0 0.00 0.00 0.00 19 1014.5
20210915202909 89 98 6.0 13.0 0.00 0.00 0.00 19 1014.7
20210915202810 89 155 6.0 13.0 0.00 0.00 0.00 20 1014.6
20210915202656 89 152 7.0 13.0 0.00 0.00 0.00 20 1014.7
20210915202558 89 109 6.0 13.0 0.00 0.00 0.00 19 1014.7
20210915202459 90 141 7.0 13.0 0.00 0.00 0.00 19 1014.7
20210915202401 90 146 8.0 13.0 0.00 0.00 0.00 20 1014.7
20210915202306 90 119 6.0 11.0 0.00 0.00 0.00 19 1014.7
20210915202202 90 136 6.0 11.0 0.00 0.00 0.00 20 1014.8
20210915202059 90 109 8.0 11.0 0.00 0.00 0.00 18 1014.9
20210915202005 90 105 8.0 12.0 0.00 0.00 0.00 19 1014.9
20210915201907 90 106 7.0 12.0 0.00 0.00 0.00 19 1014.8
20210915201809 90 97 6.0 12.0 0.00 0.00 0.00 20 1014.8
20210915201712 90 105 5.0 12.0 0.00 0.00 0.00 20 1014.8
20210915201555 90 104 6.0 13.0 0.00 0.00 0.00 20 1014.8
20210915201456 90 112 7.0 13.0 0.00 0.00 0.00 22 1014.9
20210915201404 90 74 7.0 13.0 0.00 0.00 0.00 21 1015.0
20210915201305 90 101 8.0 13.0 0.00 0.00 0.00 21 1015.0
20210915201207 90 98 8.0 13.0 0.00 0.00 0.00 20 1015.0
20210915201109 90 94 8.0 13.0 0.00 0.00 0.00 20 1015.0
20210915201011 89 95 7.0 13.0 0.00 0.00 0.00 21 1015.0
20210915200852 89 97 7.0 13.0 0.00 0.00 0.00 21 1015.0
20210915200759 89 72 6.0 13.0 0.00 0.00 0.00 22 1015.1
20210915200702 89 105 3.0 12.0 0.00 0.00 0.00 20 1015.0
20210915200603 89 79 1.0 12.0 0.00 0.00 0.00 21 1015.1
20210915200505 89 79 2.0 12.0 0.00 0.00 0.00 21 1015.1
20210915200409 89 79 4.0 12.0 0.00 0.00 0.00 20 1015.2
20210915200310 89 78 5.0 12.0 0.00 0.00 0.00 21 1015.2
20210915200156 89 49 6.0 12.0 0.00 0.00 0.00 22 1015.3
20210915200057 89 50 7.0 12.0 0.00 0.00 0.00 20 1015.3
20210915195958 89 96 4.0 12.0 0.00 0.00 0.00 21 1015.3
20210915195900 89 136 3.0 11.0 0.00 0.00 0.00 23 1015.3
20210915195802 89 140 4.0 11.0 0.00 0.00 0.00 21 1015.3
20210915195704 89 130 3.0 11.0 0.00 0.00 0.00 26 1015.3
20210915195611 89 105 3.0 11.0 0.00 0.00 0.00 24 1015.5
20210915195512 89 105 6.0 11.0 0.00 0.00 0.00 21 1015.4
20210915195354 89 113 7.0 11.0 0.00 0.00 0.00 21 1015.5
20210915195256 89 99 7.0 11.0 0.00 0.00 0.00 21 1015.5
20210915195157 89 198 7.0 11.0 0.00 0.00 0.00 23 1015.5
20210915195100 89 161 6.0 10.0 0.00 0.00 0.00 25 1015.6
20210915195006 89 90 6.0 8.0 0.00 0.00 0.00 21 1015.6
20210915194907 89 59 6.0 8.0 0.00 0.00 0.00 23 1015.6
20210915194811 89 75 4.0 9.0 0.00 0.00 0.00 25 1015.6
20210915194652 89 199 3.0 10.0 0.00 0.00 0.00 23 1015.6
20210915194554 89 204 2.0 10.0 0.00 0.00 0.00 21 1015.6
20210915194456 89 146 1.0 10.0 0.00 0.00 0.00 23 1015.7
20210915194400 89 123 1.0 10.0 0.00 0.00 0.00 22 1015.6
20210915194302 89 68 3.0 10.0 0.00 0.00 0.00 25 1015.7
20210915194204 89 91 5.0 10.0 0.00 0.00 0.00 21 1015.8
20210915194119 89 111 6.0 10.0 0.00 0.00 0.00 21 1015.8
20210915193958 90 89 7.0 10.0 0.00 0.00 0.00 22 1015.7
20210915193900 90 85 6.0 10.0 0.00 0.00 0.00 24 1015.8
20210915193802 89 77 5.0 7.0 0.00 0.00 0.00 22 1015.8
20210915193707 89 80 3.0 7.0 0.00 0.00 0.00 24 1015.9
20210915193608 89 47 2.0 5.0 0.00 0.00 0.00 26 1015.9
20210915193511 89 91 1.0 5.0 0.00 0.00 0.00 23 1016.0
20210915193354 89 25 2.0 6.0 0.00 0.00 0.00 23 1015.9
20210915193256 89 355 3.0 6.0 0.00 0.00 0.00 24 1015.9
20210915193157 89 325 2.0 6.0 0.00 0.00 0.00 28 1016.0
20210915193105 89 45 1.0 6.0 0.00 0.00 0.00 27 1016.1
20210915193007 89 90 2.0 6.0 0.00 0.00 0.00 25 1016.1
20210915192907 89 90 3.0 6.0 0.00 0.00 0.00 22 1016.1
20210915192811 89 120 3.0 6.0 0.00 0.00 0.00 23 1016.1
20210915192653 89 129 4.0 6.0 0.00 0.00 0.00 26 1016.1
20210915192555 89 83 4.0 7.0 0.00 0.00 0.00 24 1016.1
20210915192502 88 93 3.0 7.0 0.00 0.00 0.00 22 1016.1
20210915192404 88 116 2.0 7.0 0.00 0.00 0.00 24 1016.1
20210915192307 88 89 2.0 7.0 0.00 0.00 0.00 25 1016.1
20210915192210 88 126 1.0 7.0 0.00 0.00 0.00 23 1016.1
20210915192111 88 190 1.0 7.0 0.00 0.00 0.00 25 1016.2
20210915191954 88 188 2.0 7.0 0.00 0.00 0.00 27 1016.3
20210915191900 88 317 3.0 7.0 0.00 0.00 0.00 23 1016.2
20210915191802 88 290 5.0 7.0 0.00 0.00 0.00 24 1016.2
20210915191704 88 196 4.0 7.0 0.00 0.00 0.00 24 1016.2
20210915191606 88 206 3.0 6.0 0.00 0.00 0.00 23 1016.2
20210915191509 88 172 3.0 6.0 0.00 0.00 0.00 27 1016.2
20210915191411 88 198 3.0 6.0 0.00 0.00 0.00 24 1016.2
20210915191258 88 123 4.0 6.0 0.00 0.00 0.00 24 1016.3
20210915191159 88 228 3.0 6.0 0.00 0.00 0.00 25 1016.4
20210915191101 88 157 2.0 6.0 0.00 0.00 0.00 24 1016.4
20210915191004 88 160 2.0 6.0 0.00 0.00 0.00 25 1016.4
20210915190906 88 131 1.0 6.0 0.00 0.00 0.00 27 1016.4
20210915190808 88 119 1.0 6.0 0.00 0.00 0.00 24 1016.4
20210915190654 88 247 3.0 6.0 0.00 0.00 0.00 25 1016.4
20210915190556 88 210 3.0 6.0 0.00 0.00 0.00 24 1016.4
20210915190458 88 187 2.0 5.0 0.00 0.00 0.00 25 1016.5
20210915190400 88 181 1.0 6.0 0.00 0.00 0.00 25 1016.5
20210915190303 88 183 2.0 6.0 0.00 0.00 0.00 25 1016.4
20210915190205 88 115 3.0 6.0 0.00 0.00 0.00 27 1016.6
20210915190110 88 115 4.0 6.0 0.00 0.00 0.00 24 1016.5
20210915185953 88 94 3.0 6.0 0.00 0.00 0.00 26 1016.5
20210915185855 88 87 3.0 7.0 0.00 0.00 0.00 25 1016.5
20210915185757 88 96 1.0 7.0 0.00 0.00 0.00 26 1016.6
20210915185659 87 36 1.0 7.0 0.00 0.00 0.00 28 1016.6
20210915185601 87 33 2.0 7.0 0.00 0.00 0.00 28 1016.6
20210915185508 87 342 3.0 7.0 0.00 0.00 0.00 28 1016.6
20210915185411 87 26 4.0 7.0 0.00 0.00 0.00 28 1016.7
20210915185252 87 67 4.0 7.0 0.00 0.00 0.00 27 1016.6
20210915185154 87 68 4.0 7.0 0.00 0.00 0.00 25 1016.7
20210915185056 87 93 5.0 7.0 0.00 0.00 0.00 25 1016.7
20210915185000 87 105 4.0 7.0 0.00 0.00 0.00 27 1016.8
20210915184905 87 71 3.0 5.0 0.00 0.00 0.00 27 1016.8
20210915184807 87 56 2.0 6.0 0.00 0.00 0.00 28 1016.7
20210915184709 87 36 1.0 6.0 0.00 0.00 0.00 30 1016.8
20210915184610 87 94 1.0 6.0 0.00 0.00 0.00 28 1016.8
20210915184453 87 94 2.0 6.0 0.00 0.00 0.00 28 1016.9
20210915184355 87 119 3.0 6.0 0.00 0.00 0.00 26 1016.9
20210915184303 87 161 2.0 6.0 0.00 0.00 0.00 27 1016.9
20210915184204 87 63 2.0 4.0 0.00 0.00 0.00 30 1016.9
20210915184121 87 313 3.0 4.0 0.00 0.00 0.00 28 1016.9
20210915184000 87 315 2.0 4.0 0.00 0.00 0.00 29 1017.0
20210915183904 87 302 2.0 4.0 0.00 0.00 0.00 26 1016.9
20210915183806 87 252 1.0 4.0 0.00 0.00 0.00 27 1016.9
20210915183708 87 267 1.0 4.0 0.00 0.00 0.00 29 1017.1
20210915183554 87 344 1.0 4.0 0.00 0.00 0.00 30 1017.1
20210915183456 87 344 1.0 4.0 0.00 0.00 0.00 27 1017.0
20210915183358 87 287 1.0 6.0 0.00 0.00 0.00 27 1017.1
20210915183301 87 279 2.0 7.0 0.00 0.00 0.00 28 1017.1
20210915183202 87 281 3.0 7.0 0.00 0.00 0.00 29 1017.1
20210915183104 87 281 3.0 7.0 0.00 0.00 0.00 28 1017.1
20210915183011 87 263 3.0 7.0 0.00 0.00 0.00 29 1017.1
20210915182853 87 274 2.0 7.0 0.00 0.00 0.00 29 1017.2
20210915182755 87 284 2.0 7.0 0.00 0.00 0.00 30 1017.2
20210915182657 87 285 2.0 7.0 0.00 0.00 0.00 28 1017.2
20210915182558 87 265 3.0 7.0 0.00 0.00 0.00 27 1017.2
20210915182500 87 243 2.0 7.0 0.00 0.00 0.00 27 1017.3
20210915182406 87 235 1.0 4.0 0.00 0.00 0.00 28 1017.3
20210915182307 87 268 0.0 3.0 0.00 0.00 0.00 28 1017.3
20210915182208 87 269 0.0 3.0 0.00 0.00 0.00 28 1017.3
20210915182052 87 284 0.0 3.0 0.00 0.00 0.00 29 1017.3
20210915181955 87 285 1.0 4.0 0.00 0.00 0.00 27 1017.3
20210915181856 87 284 1.0 4.0 0.00 0.00 0.00 29 1017.3
20210915181802 87 284 2.0 4.0 0.00 0.00 0.00 29 1017.5
20210915181705 87 289 1.0 4.0 0.00 0.00 0.00 27 1017.3
20210915181609 87 323 1.0 4.0 0.00 0.00 0.00 28 1017.4
20210915181511 87 323 1.0 4.0 0.00 0.00 0.00 27 1017.5
20210915181352 87 323 2.0 4.0 0.00 0.00 0.00 29 1017.5
20210915181254 87 330 2.0 7.0 0.00 0.00 0.00 32 1017.5
20210915181200 87 340 1.0 7.0 0.00 0.00 0.00 30 1017.5
20210915181101 87 232 0.0 7.0 0.00 0.00 0.00 30 1017.5
20210915181001 86 189 0.0 7.0 0.00 0.00 0.00 29 1017.5
20210915180902 86 189 1.0 7.0 0.00 0.00 0.00 31 1017.5
20210915180802 86 184 1.0 7.0 0.00 0.00 0.00 29 1017.5
20210915180706 86 288 2.0 7.0 0.00 0.00 0.00 29 1017.5
20210915180612 86 271 3.0 7.0 0.00 0.00 0.00 30 1017.5
20210915180453 86 254 2.0 7.0 0.00 0.00 0.00 29 1017.6
20210915180355 86 251 1.0 7.0 0.00 0.00 0.00 30 1017.6
20210915180256 86 255 0.0 7.0 0.00 0.00 0.00 32 1017.5
20210915180159 86 257 0.0 7.0 0.00 0.00 0.00 30 1017.7
20210915180100 86 257 0.0 7.0 0.00 0.00 0.00 29 1017.7
20210915180007 86 238 1.0 7.0 0.00 0.00 0.00 31 1017.7
20210915175909 86 238 2.0 7.0 0.00 0.00 0.00 30 1017.7
20210915175812 86 253 2.0 7.0 0.00 0.00 0.00 30 1017.6
20210915175653 86 268 3.0 7.0 0.00 0.00 0.00 31 1017.7
20210915175555 86 277 2.0 7.0 0.00 0.00 0.00 30 1017.7
20210915175456 86 296 1.0 3.0 0.00 0.00 0.00 30 1017.7
20210915175403 86 5 0.0 3.0 0.00 0.00 0.00 30 1017.7
20210915175306 86 5 0.0 3.0 0.00 0.00 0.00 30 1017.7
20210915175207 86 5 1.0 3.0 0.00 0.00 0.00 30 1017.8
20210915175109 86 235 1.0 5.0 0.00 0.00 0.00 30 1017.8
20210915175011 86 219 2.0 5.0 0.00 0.00 0.00 29 1017.8
20210915174853 87 219 1.0 5.0 0.00 0.00 0.00 29 1017.8
20210915174801 87 279 1.0 5.0 0.00 0.00 0.00 30 1017.8
20210915174702 87 279 1.0 5.0 0.00 0.00 0.00 29 1017.8
20210915174604 87 15 1.0 7.0 0.00 0.00 0.00 32 1018.0
20210915174507 87 15 2.0 7.0 0.00 0.00 0.00 31 1017.9
20210915174407 87 13 3.0 7.0 0.00 0.00 0.00 31 1018.0
20210915174309 87 17 2.0 7.0 0.00 0.00 0.00 31 1018.0
20210915174154 87 336 1.0 7.0 0.00 0.00 0.00 32 1018.0
20210915174128 87 326 1.0 7.0 0.00 0.00 0.00 32 1017.9
20210915174007 86 21 2.0 7.0 0.00 0.00 0.00 30 1018.0
20210915173909 86 22 3.0 7.0 0.00 0.00 0.00 31 1018.0
20210915173811 86 25 4.0 7.0 0.00 0.00 0.00 31 1018.1
20210915173653 86 37 3.0 6.0 0.00 0.00 0.00 31 1018.0
20210915173557 86 32 1.0 6.0 0.00 0.00 0.00 31 1018.0
20210915173502 86 283 1.0 6.0 0.00 0.00 0.00 30 1018.0
20210915173403 86 317 2.0 6.0 0.00 0.00 0.00 32 1017.9
20210915173306 86 343 3.0 6.0 0.00 0.00 0.00 31 1018.0
20210915173208 86 349 3.0 6.0 0.00 0.00 0.00 31 1018.0
20210915173111 86 32 3.0 6.0 0.00 0.00 0.00 33 1018.2
20210915172952 85 32 3.0 5.0 0.00 0.00 0.00 34 1018.1
20210915172857 85 27 2.0 4.0 0.00 0.00 0.00 34 1018.1
20210915172800 85 41 1.0 4.0 0.00 0.00 0.00 31 1018.1
20210915172703 85 304 1.0 3.0 0.00 0.00 0.00 30 1018.1
20210915172604 85 301 1.0 4.0 0.00 0.00 0.00 34 1018.2
20210915172508 85 19 0.0 4.0 0.00 0.00 0.00 31 1018.2
20210915172410 85 19 0.0 4.0 0.00 0.00 0.00 32 1018.1
20210915172256 85 19 1.0 4.0 0.00 0.00 0.00 32 1018.1
20210915172159 85 19 1.0 4.0 0.00 0.00 0.00 32 1018.2
20210915172100 85 19 1.0 4.0 0.00 0.00 0.00 33 1018.2
20210915172002 85 13 1.0 4.0 0.00 0.00 0.00 32 1018.2
20210915171904 85 13 2.0 6.0 0.00 0.00 0.00 34 1018.2
20210915171807 84 13 2.0 6.0 0.00 0.00 0.00 33 1018.2
20210915171653 84 5 1.0 6.0 0.00 0.00 0.00 34 1018.2
20210915171555 84 343 1.0 6.0 0.00 0.00 0.00 32 1018.2
20210915171457 84 343 2.0 6.0 0.00 0.00 0.00 33 1018.3
20210915171358 84 345 2.0 6.0 0.00 0.00 0.00 33 1018.3
20210915171300 84 46 3.0 6.0 0.00 0.00 0.00 31 1018.3
20210915171202 84 109 4.0 6.0 0.00 0.00 0.00 33 1018.3
20210915171109 85 104 4.0 6.0 0.00 0.00 0.00 29 1018.3
20210915171010 85 117 4.0 6.0 0.00 0.00 0.00 30 1018.3
20210915170911 85 91 4.0 6.0 0.00 0.00 0.00 30 1018.3
20210915170753 85 107 3.0 6.0 0.00 0.00 0.00 31 1018.2
20210915170655 85 115 2.0 5.0 0.00 0.00 0.00 32 1018.3
20210915170556 85 69 2.0 5.0 0.00 0.00 0.00 33 1018.3
20210915170502 85 69 2.0 5.0 0.00 0.00 0.00 33 1018.4
20210915170404 85 39 1.0 5.0 0.00 0.00 0.00 36 1018.4
20210915170306 84 39 2.0 5.0 0.00 0.00 0.00 33 1018.3
20210915170208 84 51 4.0 5.0 0.00 0.00 0.00 30 1018.4
20210915170110 84 66 4.0 5.0 0.00 0.00 0.00 31 1018.3
20210915165953 84 46 3.0 5.0 0.00 0.00 0.00 31 1018.4
20210915165859 84 67 3.0 5.0 0.00 0.00 0.00 31 1018.3
20210915165800 85 63 3.0 5.0 0.00 0.00 0.00 32 1018.2
20210915165703 84 95 3.0 6.0 0.00 0.00 0.00 32 1018.3
20210915165604 84 96 3.0 6.0 0.00 0.00 0.00 32 1018.2
20210915165507 84 88 3.0 6.0 0.00 0.00 0.00 32 1018.2
20210915165408 84 40 3.0 6.0 0.00 0.00 0.00 34 1018.3